Observation data for Bootleg on 11/16/2019      Previous  Date       Current Mesonet Observations  Soil Data  Daily Summary Page  Observations in Plain Language
KBO1 160600Z 21014KT 05/M04 A3014 RMK A01 T00481038  RH  054%=      5-min Rain = 0
KBO1 160601Z 21014KT 05/M04 A3014 RMK A01 T00471039  RH  054%=      5-min Rain = 0
KBO1 160602Z 21014KT 05/M04 A3014 RMK A01 T00471039  RH  054%=      5-min Rain = 0
KBO1 160603Z 21013KT 05/M04 A3014 RMK A01 T00471039  RH  054%=      5-min Rain = 0
KBO1 160604Z 21013KT 05/M04 A3014 RMK A01 T00471039  RH  054%=      5-min Rain = 0
KBO1 160605Z 21013KT 05/M04 A3014 RMK A01 T00461039  RH  054%=      5-min Rain = 0
KBO1 160606Z 21013KT 05/M04 A3014 RMK A01 T00461038  RH  054%=      5-min Rain = 0
KBO1 160607Z 21013KT 05/M04 A3014 RMK A01 T00461038  RH  054%=      5-min Rain = 0
KBO1 160608Z 21014KT 05/M04 A3014 RMK A01 T00461038  RH  055%=      5-min Rain = 0
KBO1 160609Z 21014KT 05/M04 A3014 RMK A01 T00461038  RH  055%=      5-min Rain = 0
KBO1 160610Z 21014KT 05/M04 A3014 RMK A01 T00451038  RH  055%=      5-min Rain = 0
KBO1 160611Z 21014KT 04/M04 A3014 RMK A01 T00441038  RH  055%=      5-min Rain = 0
KBO1 160612Z 21014KT 04/M04 A3014 RMK A01 T00441038  RH  055%=      5-min Rain = 0
KBO1 160613Z 21014KT 04/M04 A3014 RMK A01 T00431038  RH  055%=      5-min Rain = 0
KBO1 160614Z 21014KT 04/M04 A3014 RMK A01 T00431038  RH  056%=      5-min Rain = 0
KBO1 160615Z 22014KT 04/M04 A3014 RMK A01 T00431037  RH  056%=      5-min Rain = 0
KBO1 160616Z 21014KT 04/M04 A3014 RMK A01 T00431037  RH  056%=      5-min Rain = 0
KBO1 160617Z 21014KT 04/M04 A3015 RMK A01 T00431038  RH  056%=      5-min Rain = 0
KBO1 160618Z 22014KT 04/M04 A3015 RMK A01 T00421038  RH  056%=      5-min Rain = 0
KBO1 160619Z 22013KT 04/M04 A3015 RMK A01 T00401039  RH  056%=      5-min Rain = 0
KBO1 160620Z 22013KT 04/M04 A3015 RMK A01 T00391039  RH  057%=      5-min Rain = 0
KBO1 160621Z 22013KT 04/M04 A3015 RMK A01 T00381039  RH  057%=      5-min Rain = 0
KBO1 160622Z 22013KT 04/M04 A3015 RMK A01 T00371039  RH  058%=      5-min Rain = 0
KBO1 160623Z 22012KT 04/M04 A3014 RMK A01 T00361039  RH  058%=      5-min Rain = 0
KBO1 160624Z 22013KT 04/M04 A3014 RMK A01 T00361039  RH  058%=      5-min Rain = 0
KBO1 160625Z 22013KT 04/M04 A3014 RMK A01 T00361038  RH  058%=      5-min Rain = 0
KBO1 160626Z 22013KT 04/M04 A3014 RMK A01 T00351038  RH  059%=      5-min Rain = 0
KBO1 160627Z 22013KT 04/M04 A3014 RMK A01 T00361037  RH  059%=      5-min Rain = 0
KBO1 160628Z 22014KT 04/M04 A3014 RMK A01 T00361037  RH  059%=      5-min Rain = 0
KBO1 160629Z 22014KT 04/M04 A3014 RMK A01 T00381036  RH  059%=      5-min Rain = 0
KBO1 160630Z 22014KT 04/M04 A3014 RMK A01 T00381036  RH  058%=      5-min Rain = 0
KBO1 160631Z 22014KT 04/M04 A3014 RMK A01 T00391035  RH  058%=      5-min Rain = 0
KBO1 160632Z 22014KT 04/M04 A3014 RMK A01 T00391035  RH  058%=      5-min Rain = 0
KBO1 160633Z 22014KT 04/M04 A3014 RMK A01 T00391036  RH  058%=      5-min Rain = 0
KBO1 160634Z 22013KT 04/M04 A3014 RMK A01 T00391036  RH  058%=      5-min Rain = 0
KBO1 160635Z 22013KT 04/M04 A3014 RMK A01 T00391035  RH  058%=      5-min Rain = 0
KBO1 160636Z 22013KT 04/M04 A3014 RMK A01 T00391035  RH  058%=      5-min Rain = 0
KBO1 160637Z 22013KT 04/M04 A3014 RMK A01 T00391035  RH  059%=      5-min Rain = 0
KBO1 160638Z 22013KT 04/M04 A3014 RMK A01 T00391035  RH  059%=      5-min Rain = 0
KBO1 160639Z 22012KT 04/M04 A3014 RMK A01 T00381035  RH  059%=      5-min Rain = 0
KBO1 160640Z 22012KT 04/M04 A3014 RMK A01 T00371035  RH  059%=      5-min Rain = 0
KBO1 160641Z 22012KT 04/M04 A3014 RMK A01 T00371035  RH  060%=      5-min Rain = 0
KBO1 160642Z 22012KT 04/M04 A3014 RMK A01 T00361035  RH  060%=      5-min Rain = 0
KBO1 160643Z 22011KT 04/M03 A3014 RMK A01 T00361034  RH  060%=      5-min Rain = 0
KBO1 160644Z 22012KT 04/M04 A3014 RMK A01 T00361035  RH  060%=      5-min Rain = 0
KBO1 160645Z 22011KT 04/M03 A3014 RMK A01 T00361034  RH  060%=      5-min Rain = 0
KBO1 160646Z 22011KT 04/M04 A3014 RMK A01 T00361035  RH  060%=      5-min Rain = 0
KBO1 160647Z 22012KT 04/M04 A3014 RMK A01 T00351035  RH  060%=      5-min Rain = 0
KBO1 160648Z 22011KT 04/M04 A3014 RMK A01 T00351035  RH  060%=      5-min Rain = 0
KBO1 160649Z 22011KT 04/M04 A3014 RMK A01 T00351035  RH  060%=      5-min Rain = 0
KBO1 160650Z 22012KT 04/M03 A3014 RMK A01 T00351034  RH  060%=      5-min Rain = 0
KBO1 160651Z 21012KT 04/M04 A3014 RMK A01 T00351035  RH  060%=      5-min Rain = 0
KBO1 160652Z 22012KT 04/M04 A3014 RMK A01 T00351035  RH  061%=      5-min Rain = 0
KBO1 160653Z 22012KT 03/M04 A3014 RMK A01 T00341035  RH  061%=      5-min Rain = 0
KBO1 160654Z 22013KT 03/M04 A3014 RMK A01 T00341035  RH  061%=      5-min Rain = 0
KBO1 160655Z 22013KT 04/M03 A3014 RMK A01 T00351034  RH  061%=      5-min Rain = 0
KBO1 160656Z 22013KT 03/M04 A3014 RMK A01 T00341035  RH  061%=      5-min Rain = 0
KBO1 160657Z 22012KT 03/M04 A3014 RMK A01 T00341035  RH  061%=      5-min Rain = 0
KBO1 160658Z 22013KT 03/M04 A3014 RMK A01 T00331035  RH  061%=      5-min Rain = 0
KBO1 160659Z 22012KT 03/M04 A3014 RMK A01 T00331035  RH  061%=      5-min Rain = 0
KBO1 160700Z 22012KT 03/M04 A3014 RMK A01 T00331035  RH  061%=      5-min Rain = 0
KBO1 160701Z 22012KT 03/M04 A3014 RMK A01 T00321035  RH  061%=      5-min Rain = 0
KBO1 160702Z 22012KT 03/M04 A3014 RMK A01 T00311035  RH  062%=      5-min Rain = 0
KBO1 160703Z 22011KT 03/M04 A3014 RMK A01 T00311035  RH  062%=      5-min Rain = 0
KBO1 160704Z 22011KT 03/M04 A3014 RMK A01 T00301035  RH  062%=      5-min Rain = 0
KBO1 160705Z 22011KT 03/M04 A3014 RMK A01 T00291036  RH  062%=      5-min Rain = 0
KBO1 160706Z 22011KT 03/M04 A3014 RMK A01 T00291036  RH  063%=      5-min Rain = 0
KBO1 160707Z 22012KT 03/M04 A3014 RMK A01 T00281036  RH  063%=      5-min Rain = 0
KBO1 160708Z 22012KT 03/M04 A3014 RMK A01 T00271036  RH  063%=      5-min Rain = 0
KBO1 160709Z 22012KT 03/M04 A3014 RMK A01 T00271035  RH  064%=      5-min Rain = 0
KBO1 160710Z 22012KT 03/M04 A3014 RMK A01 T00271035  RH  064%=      5-min Rain = 0
KBO1 160711Z 22012KT 03/M04 A3014 RMK A01 T00271035  RH  064%=      5-min Rain = 0
KBO1 160712Z 22012KT 03/M04 A3014 RMK A01 T00261035  RH  064%=      5-min Rain = 0
KBO1 160713Z 22012KT 03/M04 A3014 RMK A01 T00261035  RH  064%=      5-min Rain = 0
KBO1 160714Z 22012KT 03/M04 A3014 RMK A01 T00261035  RH  064%=      5-min Rain = 0
KBO1 160715Z 22012KT 03/M04 A3014 RMK A01 T00261035  RH  064%=      5-min Rain = 0
KBO1 160716Z 22012KT 03/M04 A3014 RMK A01 T00251035  RH  064%=      5-min Rain = 0
KBO1 160717Z 22012KT 02/M04 A3014 RMK A01 T00241036  RH  065%=      5-min Rain = 0
KBO1 160718Z 22011KT 02/M04 A3014 RMK A01 T00241036  RH  065%=      5-min Rain = 0
KBO1 160719Z 22011KT 02/M04 A3014 RMK A01 T00231036  RH  065%=      5-min Rain = 0
KBO1 160720Z 22012KT 02/M04 A3014 RMK A01 T00221036  RH  065%=      5-min Rain = 0
KBO1 160721Z 22011KT 02/M04 A3014 RMK A01 T00221036  RH  066%=      5-min Rain = 0
KBO1 160722Z 22011KT 02/M04 A3014 RMK A01 T00221036  RH  066%=      5-min Rain = 0
KBO1 160723Z 22011KT 02/M04 A3014 RMK A01 T00221036  RH  066%=      5-min Rain = 0
KBO1 160724Z 22012KT 02/M04 A3014 RMK A01 T00221036  RH  066%=      5-min Rain = 0
KBO1 160725Z 22012KT 02/M04 A3014 RMK A01 T00221036  RH  066%=      5-min Rain = 0
KBO1 160726Z 22011KT 02/M04 A3013 RMK A01 T00221036  RH  066%=      5-min Rain = 0
KBO1 160727Z 22011KT 02/M04 A3013 RMK A01 T00221036  RH  066%=      5-min Rain = 0
KBO1 160728Z 22012KT 02/M04 A3013 RMK A01 T00211036  RH  066%=      5-min Rain = 0
KBO1 160729Z 22011KT 02/M04 A3013 RMK A01 T00211036  RH  066%=      5-min Rain = 0
KBO1 160730Z 22011KT 02/M04 A3013 RMK A01 T00211036  RH  066%=      5-min Rain = 0
KBO1 160731Z 22011KT 02/M04 A3013 RMK A01 T00211036  RH  066%=      5-min Rain = 0
KBO1 160732Z 22012KT 02/M04 A3013 RMK A01 T00211035  RH  066%=      5-min Rain = 0
KBO1 160733Z 22012KT 02/M04 A3013 RMK A01 T00211035  RH  066%=      5-min Rain = 0
KBO1 160734Z 22011KT 02/M04 A3013 RMK A01 T00221035  RH  066%=      5-min Rain = 0
KBO1 160735Z 22012KT 02/M04 A3013 RMK A01 T00211035  RH  066%=      5-min Rain = 0
KBO1 160736Z 22012KT 02/M04 A3013 RMK A01 T00221035  RH  066%=      5-min Rain = 0
KBO1 160737Z 22012KT 02/M04 A3013 RMK A01 T00221035  RH  066%=      5-min Rain = 0
KBO1 160738Z 22012KT 02/M03 A3013 RMK A01 T00231034  RH  066%=      5-min Rain = 0
KBO1 160739Z 22012KT 02/M03 A3013 RMK A01 T00231034  RH  066%=      5-min Rain = 0
KBO1 160740Z 22012KT 02/M03 A3013 RMK A01 T00231034  RH  066%=      5-min Rain = 0
KBO1 160741Z 22012KT 02/M03 A3013 RMK A01 T00231034  RH  066%=      5-min Rain = 0
KBO1 160742Z 22012KT 02/M03 A3013 RMK A01 T00231034  RH  066%=      5-min Rain = 0
KBO1 160743Z 22012KT 02/M03 A3013 RMK A01 T00231034  RH  066%=      5-min Rain = 0
KBO1 160744Z 22012KT 02/M03 A3013 RMK A01 T00241033  RH  066%=      5-min Rain = 0
KBO1 160745Z 22012KT 02/M03 A3013 RMK A01 T00231034  RH  066%=      5-min Rain = 0
KBO1 160746Z 22012KT 02/M03 A3013 RMK A01 T00241033  RH  066%=      5-min Rain = 0
KBO1 160747Z 22012KT 02/M03 A3013 RMK A01 T00241033  RH  066%=      5-min Rain = 0
KBO1 160748Z 22012KT 02/M03 A3013 RMK A01 T00241033  RH  066%=      5-min Rain = 0
KBO1 160749Z 22012KT 03/M03 A3013 RMK A01 T00261032  RH  066%=      5-min Rain = 0
KBO1 160750Z 22011KT 03/M03 A3013 RMK A01 T00261033  RH  065%=      5-min Rain = 0
KBO1 160751Z 22011KT 03/M03 A3013 RMK A01 T00261033  RH  065%=      5-min Rain = 0
KBO1 160752Z 22011KT 03/M03 A3013 RMK A01 T00261033  RH  065%=      5-min Rain = 0
KBO1 160753Z 22011KT 03/M03 A3013 RMK A01 T00261032  RH  065%=      5-min Rain = 0
KBO1 160754Z 22010KT 03/M03 A3013 RMK A01 T00261032  RH  066%=      5-min Rain = 0
KBO1 160755Z 22011KT 03/M03 A3013 RMK A01 T00251032  RH  066%=      5-min Rain = 0
KBO1 160756Z 22011KT 03/M03 A3013 RMK A01 T00251033  RH  066%=      5-min Rain = 0
KBO1 160757Z 22011KT 03/M03 A3012 RMK A01 T00251033  RH  066%=      5-min Rain = 0
KBO1 160758Z 22010KT 02/M03 A3012 RMK A01 T00241033  RH  066%=      5-min Rain = 0
KBO1 160759Z 22010KT 02/M03 A3012 RMK A01 T00241033  RH  066%=      5-min Rain = 0
KBO1 160800Z 22010KT 02/M03 A3012 RMK A01 T00241032  RH  066%=      5-min Rain = 0
KBO1 160801Z 22010KT 02/M03 A3012 RMK A01 T00241032  RH  066%=      5-min Rain = 0
KBO1 160802Z 22010KT 02/M03 A3012 RMK A01 T00241032  RH  067%=      5-min Rain = 0
KBO1 160803Z 22010KT 02/M03 A3012 RMK A01 T00241032  RH  067%=      5-min Rain = 0
KBO1 160804Z 22010KT 02/M03 A3012 RMK A01 T00241032  RH  067%=      5-min Rain = 0
KBO1 160805Z 22010KT 02/M03 A3012 RMK A01 T00241032  RH  067%=      5-min Rain = 0
KBO1 160806Z 22010KT 02/M03 A3012 RMK A01 T00241032  RH  067%=      5-min Rain = 0
KBO1 160807Z 22010KT 02/M03 A3012 RMK A01 T00241032  RH  067%=      5-min Rain = 0
KBO1 160808Z 22010KT 02/M03 A3012 RMK A01 T00241032  RH  067%=      5-min Rain = 0
KBO1 160809Z 22010KT 02/M03 A3012 RMK A01 T00241031  RH  067%=      5-min Rain = 0
KBO1 160810Z 22010KT 02/M03 A3012 RMK A01 T00231032  RH  067%=      5-min Rain = 0
KBO1 160811Z 22010KT 02/M03 A3012 RMK A01 T00221032  RH  067%=      5-min Rain = 0
KBO1 160812Z 22010KT 02/M03 A3012 RMK A01 T00221032  RH  068%=      5-min Rain = 0
KBO1 160813Z 22010KT 02/M03 A3012 RMK A01 T00211032  RH  068%=      5-min Rain = 0
KBO1 160814Z 22010KT 02/M03 A3012 RMK A01 T00211032  RH  068%=      5-min Rain = 0
KBO1 160815Z 22010KT 02/M03 A3012 RMK A01 T00211032  RH  068%=      5-min Rain = 0
KBO1 160816Z 22010KT 02/M03 A3012 RMK A01 T00201032  RH  068%=      5-min Rain = 0
KBO1 160817Z 22010KT 02/M03 A3012 RMK A01 T00201033  RH  068%=      5-min Rain = 0
KBO1 160818Z 22010KT 02/M03 A3012 RMK A01 T00191032  RH  069%=      5-min Rain = 0
KBO1 160819Z 22009KT 02/M03 A3012 RMK A01 T00191033  RH  069%=      5-min Rain = 0
KBO1 160820Z 22009KT 02/M03 A3012 RMK A01 T00181033  RH  069%=      5-min Rain = 0
KBO1 160821Z 22009KT 02/M03 A3012 RMK A01 T00171033  RH  069%=      5-min Rain = 0
KBO1 160822Z 22009KT 02/M03 A3012 RMK A01 T00171033  RH  070%=      5-min Rain = 0
KBO1 160823Z 22009KT 02/M03 A3012 RMK A01 T00161033  RH  070%=      5-min Rain = 0
KBO1 160824Z 22009KT 02/M03 A3012 RMK A01 T00161033  RH  070%=      5-min Rain = 0
KBO1 160825Z 22009KT 02/M03 A3012 RMK A01 T00161033  RH  070%=      5-min Rain = 0
KBO1 160826Z 22009KT 02/M03 A3012 RMK A01 T00161033  RH  070%=      5-min Rain = 0
KBO1 160827Z 22009KT 02/M03 A3012 RMK A01 T00161033  RH  070%=      5-min Rain = 0
KBO1 160828Z 22009KT 02/M03 A3012 RMK A01 T00151033  RH  070%=      5-min Rain = 0
KBO1 160829Z 22009KT 02/M03 A3012 RMK A01 T00151034  RH  070%=      5-min Rain = 0
KBO1 160830Z 22009KT 02/M03 A3012 RMK A01 T00151033  RH  070%=      5-min Rain = 0
KBO1 160831Z 21009KT 02/M03 A3012 RMK A01 T00151033  RH  070%=      5-min Rain = 0
KBO1 160832Z 22008KT 02/M03 A3012 RMK A01 T00151033  RH  070%=      5-min Rain = 0
KBO1 160833Z 21008KT 02/M03 A3012 RMK A01 T00151033  RH  070%=      5-min Rain = 0
KBO1 160834Z 21008KT 02/M03 A3012 RMK A01 T00151033  RH  070%=      5-min Rain = 0
KBO1 160835Z 21008KT 02/M03 A3012 RMK A01 T00151033  RH  070%=      5-min Rain = 0
KBO1 160836Z 22008KT 02/M03 A3012 RMK A01 T00151033  RH  070%=      5-min Rain = 0
KBO1 160837Z 22008KT 02/M03 A3012 RMK A01 T00161033  RH  070%=      5-min Rain = 0
KBO1 160838Z 22008KT 02/M03 A3012 RMK A01 T00161033  RH  070%=      5-min Rain = 0
KBO1 160839Z 22007KT 02/M03 A3012 RMK A01 T00161033  RH  070%=      5-min Rain = 0
KBO1 160840Z 21007KT 02/M03 A3012 RMK A01 T00161033  RH  070%=      5-min Rain = 0
KBO1 160841Z 21007KT 02/M03 A3012 RMK A01 T00161033  RH  070%=      5-min Rain = 0
KBO1 160842Z 21007KT 02/M03 A3012 RMK A01 T00161033  RH  070%=      5-min Rain = 0
KBO1 160843Z 22006KT 02/M03 A3012 RMK A01 T00161033  RH  070%=      5-min Rain = 0
KBO1 160844Z 21007KT 02/M03 A3012 RMK A01 T00161033  RH  070%=      5-min Rain = 0
KBO1 160845Z 21007KT 02/M03 A3012 RMK A01 T00161033  RH  070%=      5-min Rain = 0
KBO1 160846Z 21006KT 02/M03 A3012 RMK A01 T00161033  RH  070%=      5-min Rain = 0
KBO1 160847Z 21007KT 02/M03 A3012 RMK A01 T00151033  RH  070%=      5-min Rain = 0
KBO1 160848Z 21007KT 02/M03 A3012 RMK A01 T00151033  RH  070%=      5-min Rain = 0
KBO1 160849Z 21007KT 02/M03 A3012 RMK A01 T00151034  RH  070%=      5-min Rain = 0
KBO1 160850Z 21008KT 01/M04 A3012 RMK A01 T00131035  RH  070%=      5-min Rain = 0
KBO1 160851Z 21008KT 01/M04 A3011 RMK A01 T00121035  RH  071%=      5-min Rain = 0
KBO1 160852Z 21009KT 01/M03 A3011 RMK A01 T00121034  RH  071%=      5-min Rain = 0
KBO1 160853Z 21009KT 01/M03 A3011 RMK A01 T00121034  RH  072%=      5-min Rain = 0
KBO1 160854Z 21009KT 01/M03 A3011 RMK A01 T00111033  RH  072%=      5-min Rain = 0
KBO1 160855Z 21009KT 01/M03 A3011 RMK A01 T00111034  RH  072%=      5-min Rain = 0
KBO1 160856Z 21009KT 01/M03 A3011 RMK A01 T00111034  RH  072%=      5-min Rain = 0
KBO1 160857Z 21009KT 01/M03 A3011 RMK A01 T00121033  RH  072%=      5-min Rain = 0
KBO1 160858Z 21009KT 01/M03 A3011 RMK A01 T00121033  RH  072%=      5-min Rain = 0
KBO1 160859Z 21009KT 01/M03 A3011 RMK A01 T00121033  RH  072%=      5-min Rain = 0
KBO1 160900Z 21010KT 01/M03 A3011 RMK A01 T00131033  RH  072%=      5-min Rain = 0
KBO1 160901Z 21010KT 01/M03 A3011 RMK A01 T00121033  RH  072%=      5-min Rain = 0
KBO1 160902Z 21010KT 01/M03 A3011 RMK A01 T00121033  RH  072%=      5-min Rain = 0
KBO1 160903Z 21010KT 01/M03 A3011 RMK A01 T00121033  RH  072%=      5-min Rain = 0
KBO1 160904Z 21011KT 01/M03 A3011 RMK A01 T00121033  RH  072%=      5-min Rain = 0
KBO1 160905Z 21011KT 01/M03 A3011 RMK A01 T00131032  RH  072%=      5-min Rain = 0
KBO1 160906Z 21011KT 01/M03 A3011 RMK A01 T00121032  RH  072%=      5-min Rain = 0
KBO1 160907Z 21011KT 01/M03 A3011 RMK A01 T00131032  RH  072%=      5-min Rain = 0
KBO1 160908Z 21011KT 01/M03 A3011 RMK A01 T00131032  RH  072%=      5-min Rain = 0
KBO1 160909Z 21011KT 01/M03 A3011 RMK A01 T00141031  RH  072%=      5-min Rain = 0
KBO1 160910Z 21011KT 01/M03 A3011 RMK A01 T00141031  RH  072%=      5-min Rain = 0
KBO1 160911Z 21011KT 01/M03 A3011 RMK A01 T00141031  RH  072%=      5-min Rain = 0
KBO1 160912Z 21011KT 01/M03 A3011 RMK A01 T00141031  RH  072%=      5-min Rain = 0
KBO1 160913Z 21012KT 01/M03 A3011 RMK A01 T00141031  RH  072%=      5-min Rain = 0
KBO1 160914Z 21011KT 02/M03 A3011 RMK A01 T00151030  RH  072%=      5-min Rain = 0
KBO1 160915Z 21011KT 02/M03 A3011 RMK A01 T00151030  RH  072%=      5-min Rain = 0
KBO1 160916Z 21011KT 02/M03 A3011 RMK A01 T00151030  RH  072%=      5-min Rain = 0
KBO1 160917Z 21012KT 02/M03 A3011 RMK A01 T00151030  RH  072%=      5-min Rain = 0
KBO1 160918Z 21012KT 02/M03 A3011 RMK A01 T00161030  RH  072%=      5-min Rain = 0
KBO1 160919Z 21011KT 02/M03 A3011 RMK A01 T00161030  RH  072%=      5-min Rain = 0
KBO1 160920Z 21011KT 02/M03 A3011 RMK A01 T00161030  RH  072%=      5-min Rain = 0
KBO1 160921Z 21011KT 02/M03 A3011 RMK A01 T00161030  RH  072%=      5-min Rain = 0
KBO1 160922Z 21011KT 02/M03 A3011 RMK A01 T00151030  RH  072%=      5-min Rain = 0
KBO1 160923Z 21012KT 02/M03 A3011 RMK A01 T00151029  RH  072%=      5-min Rain = 0
KBO1 160924Z 21011KT 02/M03 A301 RMK A01 T00151029  RH  073%=      5-min Rain = 0
KBO1 160925Z 21012KT 02/M03 A301 RMK A01 T00151029  RH  073%=      5-min Rain = 0
KBO1 160926Z 21012KT 02/M03 A301 RMK A01 T00151029  RH  073%=      5-min Rain = 0
KBO1 160927Z 21012KT 02/M03 A301 RMK A01 T00151028  RH  073%=      5-min Rain = 0
KBO1 160928Z 22012KT 02/M03 A301 RMK A01 T00151029  RH  073%=      5-min Rain = 0
KBO1 160929Z 22012KT 02/M03 A301 RMK A01 T00161028  RH  073%=      5-min Rain = 0
KBO1 160930Z 22014KT 02/M03 A301 RMK A01 T00161027  RH  073%=      5-min Rain = 0
KBO1 160931Z 22013KT 02/M03 A301 RMK A01 T00181026  RH  072%=      5-min Rain = 0
KBO1 160932Z 21013KT 02/M03 A301 RMK A01 T00191026  RH  072%=      5-min Rain = 0
KBO1 160933Z 21013KT 02/M03 A301 RMK A01 T00211025  RH  072%=      5-min Rain = 0
KBO1 160934Z 22013KT 02/M03 A301 RMK A01 T00221025  RH  071%=      5-min Rain = 0
KBO1 160935Z 22014KT 02/M02 A301 RMK A01 T00221024  RH  071%=      5-min Rain = 0
KBO1 160936Z 22014KT 02/M02 A301 RMK A01 T00241023  RH  071%=      5-min Rain = 0
KBO1 160937Z 22014KT 03/M02 A301 RMK A01 T00251023  RH  070%=      5-min Rain = 0
KBO1 160938Z 22014KT 03/M02 A301 RMK A01 T00261023  RH  070%=      5-min Rain = 0
KBO1 160939Z 22014KT 03/M02 A301 RMK A01 T00261023  RH  070%=      5-min Rain = 0
KBO1 160940Z 22014KT 03/M02 A301 RMK A01 T00261024  RH  070%=      5-min Rain = 0
KBO1 160941Z 22014KT 03/M02 A301 RMK A01 T00261024  RH  070%=      5-min Rain = 0
KBO1 160942Z 22014KT 03/M02 A301 RMK A01 T00261024  RH  070%=      5-min Rain = 0
KBO1 160943Z 22013KT 03/M02 A301 RMK A01 T00261024  RH  070%=      5-min Rain = 0
KBO1 160944Z 22014KT 03/M02 A301 RMK A01 T00251024  RH  070%=      5-min Rain = 0
KBO1 160945Z 22014KT 03/M02 A301 RMK A01 T00251024  RH  070%=      5-min Rain = 0
KBO1 160946Z 22013KT 03/M02 A301 RMK A01 T00251024  RH  070%=      5-min Rain = 0
KBO1 160947Z 22014KT 03/M02 A301 RMK A01 T00251024  RH  070%=      5-min Rain = 0
KBO1 160948Z 22014KT 03/M02 A301 RMK A01 T00251024  RH  070%=      5-min Rain = 0
KBO1 160949Z 22013KT 02/M03 A301 RMK A01 T00241025  RH  070%=      5-min Rain = 0
KBO1 160950Z 22014KT 02/M03 A3009 RMK A01 T00231025  RH  070%=      5-min Rain = 0
KBO1 160951Z 22014KT 02/M03 A3009 RMK A01 T00231025  RH  070%=      5-min Rain = 0
KBO1 160952Z 22014KT 02/M02 A3009 RMK A01 T00241024  RH  071%=      5-min Rain = 0
KBO1 160953Z 22015KT 02/M02 A3009 RMK A01 T00241024  RH  071%=      5-min Rain = 0
KBO1 160954Z 22014KT 02/M02 A3009 RMK A01 T00231024  RH  071%=      5-min Rain = 0
KBO1 160955Z 22014KT 02/M02 A3009 RMK A01 T00241024  RH  071%=      5-min Rain = 0
KBO1 160956Z 22014KT 03/M02 A3009 RMK A01 T00251023  RH  071%=      5-min Rain = 0
KBO1 160957Z 22014KT 02/M02 A3009 RMK A01 T00241024  RH  070%=      5-min Rain = 0
KBO1 160958Z 22014KT 03/M02 A3009 RMK A01 T00251023  RH  070%=      5-min Rain = 0
KBO1 160959Z 22014KT 03/M02 A3009 RMK A01 T00261023  RH  070%=      5-min Rain = 0
KBO1 161000Z 22014KT 03/M02 A3009 RMK A01 T00261023  RH  070%=      5-min Rain = 0
KBO1 161001Z 22015KT 03/M02 A3009 RMK A01 T00261023  RH  070%=      5-min Rain = 0
KBO1 161002Z 22014KT 03/M02 A3009 RMK A01 T00261023  RH  070%=      5-min Rain = 0
KBO1 161003Z 22015KT 03/M02 A3009 RMK A01 T00261023  RH  070%=      5-min Rain = 0
KBO1 161004Z 22014KT 03/M02 A3009 RMK A01 T00261022  RH  070%=      5-min Rain = 0
KBO1 161005Z 22014KT 03/M02 A3009 RMK A01 T00271022  RH  070%=      5-min Rain = 0
KBO1 161006Z 22014KT 03/M02 A3009 RMK A01 T00281021  RH  070%=      5-min Rain = 0
KBO1 161007Z 22014KT 03/M02 A3009 RMK A01 T00281022  RH  070%=      5-min Rain = 0
KBO1 161008Z 22015KT 03/M02 A3009 RMK A01 T00281022  RH  070%=      5-min Rain = 0
KBO1 161009Z 22015KT 03/M02 A3009 RMK A01 T00281021  RH  070%=      5-min Rain = 0
KBO1 161010Z 22014KT 03/M02 A3009 RMK A01 T00281021  RH  070%=      5-min Rain = 0
KBO1 161011Z 22015KT 03/M02 A3009 RMK A01 T00281021  RH  070%=      5-min Rain = 0
KBO1 161012Z 22015KT 03/M02 A3009 RMK A01 T00291021  RH  070%=      5-min Rain = 0
KBO1 161013Z 22014KT 03/M02 A3009 RMK A01 T00291021  RH  070%=      5-min Rain = 0
KBO1 161014Z 22015KT 03/M02 A3009 RMK A01 T00291021  RH  070%=      5-min Rain = 0
KBO1 161015Z 22015KT 03/M02 A3009 RMK A01 T00291021  RH  070%=      5-min Rain = 0
KBO1 161016Z 22015KT 03/M02 A3009 RMK A01 T00301021  RH  069%=      5-min Rain = 0
KBO1 161017Z 22015KT 03/M02 A3009 RMK A01 T00301021  RH  069%=      5-min Rain = 0
KBO1 161018Z 22015KT 03/M02 A3009 RMK A01 T00291022  RH  069%=      5-min Rain = 0
KBO1 161019Z 22015KT 03/M02 A3009 RMK A01 T00291021  RH  069%=      5-min Rain = 0
KBO1 161020Z 22015KT 03/M02 A3009 RMK A01 T00291021  RH  069%=      5-min Rain = 0
KBO1 161021Z 22016KT 03/M02 A3009 RMK A01 T00301021  RH  069%=      5-min Rain = 0
KBO1 161022Z 22015KT 03/M02 A3009 RMK A01 T00291021  RH  069%=      5-min Rain = 0
KBO1 161023Z 22015KT 03/M02 A3009 RMK A01 T00291022  RH  069%=      5-min Rain = 0
KBO1 161024Z 22015KT 03/M02 A3009 RMK A01 T00291021  RH  069%=      5-min Rain = 0
KBO1 161025Z 22014KT 03/M02 A3008 RMK A01 T00291021  RH  069%=      5-min Rain = 0
KBO1 161026Z 22014KT 03/M02 A3008 RMK A01 T00291021  RH  069%=      5-min Rain = 0
KBO1 161027Z 22014KT 03/M02 A3008 RMK A01 T00291021  RH  070%=      5-min Rain = 0
KBO1 161028Z 22014KT 03/M02 A3008 RMK A01 T00281022  RH  070%=      5-min Rain = 0
KBO1 161029Z 22014KT 03/M02 A3008 RMK A01 T00281021  RH  070%=      5-min Rain = 0
KBO1 161030Z 22014KT 03/M02 A3009 RMK A01 T00281021  RH  070%=      5-min Rain = 0
KBO1 161031Z 21014KT 03/M02 A3009 RMK A01 T00281021  RH  070%=      5-min Rain = 0
KBO1 161032Z 22015KT 03/M02 A3009 RMK A01 T00281020  RH  070%=      5-min Rain = 0
KBO1 161033Z 22014KT 03/M02 A3008 RMK A01 T00281020  RH  070%=      5-min Rain = 0
KBO1 161034Z 22014KT 03/M02 A3009 RMK A01 T00291020  RH  070%=      5-min Rain = 0
KBO1 161035Z 22014KT 03/M02 A3009 RMK A01 T00291020  RH  070%=      5-min Rain = 0
KBO1 161036Z 22014KT 03/M02 A3008 RMK A01 T00291020  RH  070%=      5-min Rain = 0
KBO1 161037Z 22015KT 03/M02 A3008 RMK A01 T00301019  RH  070%=      5-min Rain = 0
KBO1 161038Z 22015KT 03/M02 A3008 RMK A01 T00311019  RH  070%=      5-min Rain = 0
KBO1 161039Z 22015KT 03/M02 A3009 RMK A01 T00311019  RH  069%=      5-min Rain = 0
KBO1 161040Z 22015KT 03/M02 A3009 RMK A01 T00321019  RH  069%=      5-min Rain = 0
KBO1 161041Z 22014KT 03/M02 A3009 RMK A01 T00321019  RH  069%=      5-min Rain = 0
KBO1 161042Z 22014KT 03/M02 A3008 RMK A01 T00321019  RH  069%=      5-min Rain = 0
KBO1 161043Z 22014KT 03/M02 A3008 RMK A01 T00321019  RH  069%=      5-min Rain = 0
KBO1 161044Z 22015KT 03/M02 A3008 RMK A01 T00331018  RH  069%=      5-min Rain = 0
KBO1 161045Z 22014KT 03/M02 A3008 RMK A01 T00331019  RH  069%=      5-min Rain = 0
KBO1 161046Z 22014KT 03/M02 A3008 RMK A01 T00331018  RH  069%=      5-min Rain = 0
KBO1 161047Z 22014KT 03/M02 A3009 RMK A01 T00331019  RH  069%=      5-min Rain = 0
KBO1 161048Z 22015KT 03/M02 A3009 RMK A01 T00341019  RH  069%=      5-min Rain = 0
KBO1 161049Z 22014KT 03/M02 A3009 RMK A01 T00341018  RH  069%=      5-min Rain = 0
KBO1 161050Z 22014KT 03/M02 A3009 RMK A01 T00341018  RH  069%=      5-min Rain = 0
KBO1 161051Z 22015KT 03/M02 A3009 RMK A01 T00331018  RH  069%=      5-min Rain = 0
KBO1 161052Z 22014KT 03/M02 A3009 RMK A01 T00341018  RH  069%=      5-min Rain = 0
KBO1 161053Z 22014KT 03/M02 A3009 RMK A01 T00341018  RH  069%=      5-min Rain = 0
KBO1 161054Z 22013KT 03/M02 A3009 RMK A01 T00341018  RH  069%=      5-min Rain = 0
KBO1 161055Z 22014KT 03/M02 A3009 RMK A01 T00341018  RH  069%=      5-min Rain = 0
KBO1 161056Z 22015KT 03/M02 A3009 RMK A01 T00341018  RH  069%=      5-min Rain = 0
KBO1 161057Z 22014KT 04/M02 A3009 RMK A01 T00351018  RH  069%=      5-min Rain = 0
KBO1 161058Z 22015KT 03/M02 A3009 RMK A01 T00341018  RH  068%=      5-min Rain = 0
KBO1 161059Z 22015KT 03/M02 A3009 RMK A01 T00341018  RH  068%=      5-min Rain = 0
KBO1 161100Z 22016KT 03/M02 A3009 RMK A01 T00341018  RH  068%=      5-min Rain = 0
KBO1 161101Z 22015KT 04/M02 A3009 RMK A01 T00351018  RH  068%=      5-min Rain = 0
KBO1 161102Z 22015KT 04/M02 A3009 RMK A01 T00351018  RH  068%=      5-min Rain = 0
KBO1 161103Z 22014KT 04/M02 A3009 RMK A01 T00351018  RH  068%=      5-min Rain = 0
KBO1 161104Z 22014KT 04/M02 A3009 RMK A01 T00351018  RH  068%=      5-min Rain = 0
KBO1 161105Z 22014KT 03/M02 A3009 RMK A01 T00341018  RH  068%=      5-min Rain = 0
KBO1 161106Z 22014KT 04/M02 A3009 RMK A01 T00351018  RH  069%=      5-min Rain = 0
KBO1 161107Z 22014KT 03/M02 A3009 RMK A01 T00341018  RH  069%=      5-min Rain = 0
KBO1 161108Z 22014KT 03/M02 A3009 RMK A01 T00331018  RH  069%=      5-min Rain = 0
KBO1 161109Z 22014KT 03/M02 A3009 RMK A01 T00331018  RH  069%=      5-min Rain = 0
KBO1 161110Z 22013KT 03/M02 A3009 RMK A01 T00331018  RH  069%=      5-min Rain = 0
KBO1 161111Z 22013KT 03/M02 A3009 RMK A01 T00331018  RH  069%=      5-min Rain = 0
KBO1 161112Z 22013KT 03/M02 A3009 RMK A01 T00321019  RH  069%=      5-min Rain = 0
KBO1 161113Z 22013KT 03/M02 A3009 RMK A01 T00331018  RH  069%=      5-min Rain = 0
KBO1 161114Z 22011KT 03/M02 A3009 RMK A01 T00331018  RH  069%=      5-min Rain = 0
KBO1 161115Z 22011KT 03/M02 A3009 RMK A01 T00321018  RH  069%=      5-min Rain = 0
KBO1 161116Z 22010KT 03/M02 A3009 RMK A01 T00321018  RH  070%=      5-min Rain = 0
KBO1 161117Z 22010KT 03/M02 A3009 RMK A01 T00321018  RH  070%=      5-min Rain = 0
KBO1 161118Z 22010KT 03/M02 A3009 RMK A01 T00321018  RH  070%=      5-min Rain = 0
KBO1 161119Z 21009KT 03/M02 A3009 RMK A01 T00321018  RH  070%=      5-min Rain = 0
KBO1 161120Z 21009KT 03/M02 A3009 RMK A01 T00321018  RH  070%=      5-min Rain = 0
KBO1 161121Z 21009KT 03/M02 A3009 RMK A01 T00311018  RH  070%=      5-min Rain = 0
KBO1 161122Z 21009KT 03/M02 A3009 RMK A01 T00311019  RH  070%=      5-min Rain = 0
KBO1 161123Z 21008KT 03/M02 A3009 RMK A01 T00301019  RH  070%=      5-min Rain = 0
KBO1 161124Z 21008KT 03/M02 A3009 RMK A01 T00301019  RH  070%=      5-min Rain = 0
KBO1 161125Z 21009KT 03/M02 A3009 RMK A01 T00301019  RH  070%=      5-min Rain = 0
KBO1 161126Z 21008KT 03/M02 A3009 RMK A01 T00301019  RH  070%=      5-min Rain = 0
KBO1 161127Z 21009KT 03/M02 A3009 RMK A01 T00301019  RH  070%=      5-min Rain = 0
KBO1 161128Z 21009KT 03/M02 A3009 RMK A01 T00301019  RH  070%=      5-min Rain = 0
KBO1 161129Z 21009KT 03/M02 A3009 RMK A01 T00291019  RH  070%=      5-min Rain = 0
KBO1 161130Z 22009KT 03/M02 A3009 RMK A01 T00291019  RH  070%=      5-min Rain = 0
KBO1 161131Z 22009KT 03/M02 A3009 RMK A01 T00301019  RH  070%=      5-min Rain = 0
KBO1 161132Z 22009KT 03/M02 A3009 RMK A01 T00311019  RH  070%=      5-min Rain = 0
KBO1 161133Z 22009KT 03/M02 A3009 RMK A01 T00301019  RH  070%=      5-min Rain = 0
KBO1 161134Z 22009KT 03/M02 A3009 RMK A01 T00301019  RH  070%=      5-min Rain = 0
KBO1 161135Z 22008KT 03/M02 A3009 RMK A01 T00301019  RH  070%=      5-min Rain = 0
KBO1 161136Z 22010KT 03/M02 A3009 RMK A01 T00301019  RH  070%=      5-min Rain = 0
KBO1 161137Z 22010KT 03/M02 A3008 RMK A01 T00311018  RH  070%=      5-min Rain = 0
KBO1 161138Z 22011KT 03/M02 A3008 RMK A01 T00311018  RH  070%=      5-min Rain = 0
KBO1 161139Z 22010KT 03/M02 A3008 RMK A01 T00321018  RH  070%=      5-min Rain = 0
KBO1 161140Z 22010KT 03/M02 A3008 RMK A01 T00321018  RH  069%=      5-min Rain = 0
KBO1 161141Z 22010KT 03/M02 A3008 RMK A01 T00331018  RH  069%=      5-min Rain = 0
KBO1 161142Z 22010KT 03/M02 A3008 RMK A01 T00331018  RH  069%=      5-min Rain = 0
KBO1 161143Z 22010KT 03/M02 A3008 RMK A01 T00331018  RH  069%=      5-min Rain = 0
KBO1 161144Z 22011KT 03/M02 A3008 RMK A01 T00331018  RH  069%=      5-min Rain = 0
KBO1 161145Z 22010KT 03/M02 A3008 RMK A01 T00321018  RH  070%=      5-min Rain = 0
KBO1 161146Z 22010KT 03/M02 A3008 RMK A01 T00321018  RH  070%=      5-min Rain = 0
KBO1 161147Z 22011KT 03/M02 A3008 RMK A01 T00311018  RH  070%=      5-min Rain = 0
KBO1 161148Z 22011KT 03/M02 A3008 RMK A01 T00311018  RH  070%=      5-min Rain = 0
KBO1 161149Z 22011KT 03/M02 A3008 RMK A01 T00311018  RH  070%=      5-min Rain = 0
KBO1 161150Z 22010KT 03/M02 A3008 RMK A01 T00311018  RH  070%=      5-min Rain = 0
KBO1 161151Z 22010KT 03/M02 A3008 RMK A01 T00311017  RH  071%=      5-min Rain = 0
KBO1 161152Z 22011KT 03/M02 A3008 RMK A01 T00301017  RH  071%=      5-min Rain = 0
KBO1 161153Z 22011KT 03/M02 A3008 RMK A01 T00311017  RH  071%=      5-min Rain = 0
KBO1 161154Z 22011KT 03/M02 A3008 RMK A01 T00311017  RH  071%=      5-min Rain = 0
KBO1 161155Z 22011KT 03/M02 A3008 RMK A01 T00321017  RH  071%=      5-min Rain = 0
KBO1 161156Z 22011KT 03/M02 A3008 RMK A01 T00321016  RH  071%=      5-min Rain = 0
KBO1 161157Z 22011KT 03/M02 A3008 RMK A01 T00321017  RH  070%=      5-min Rain = 0
KBO1 161158Z 22010KT 03/M02 A3008 RMK A01 T00331016  RH  070%=      5-min Rain = 0
KBO1 161159Z 22010KT 03/M02 A3008 RMK A01 T00331016  RH  070%=      5-min Rain = 0
KBO1 161200Z 22010KT 03/M02 A3008 RMK A01 T00331016  RH  070%=      5-min Rain = 0
KBO1 161201Z 22009KT 03/M02 A3008 RMK A01 T00321016  RH  070%=      5-min Rain = 0
KBO1 161202Z 22009KT 03/M02 A3008 RMK A01 T00321016  RH  071%=      5-min Rain = 0
KBO1 161203Z 22010KT 03/M02 A3008 RMK A01 T00321016  RH  071%=      5-min Rain = 0
KBO1 161204Z 22009KT 03/M02 A3008 RMK A01 T00321016  RH  071%=      5-min Rain = 0
KBO1 161205Z 22009KT 03/M02 A3008 RMK A01 T00321016  RH  071%=      5-min Rain = 0
KBO1 161206Z 22010KT 03/M02 A3008 RMK A01 T00321016  RH  071%=      5-min Rain = 0
KBO1 161207Z 22010KT 03/M02 A3008 RMK A01 T00321016  RH  070%=      5-min Rain = 0
KBO1 161208Z 22010KT 03/M02 A3008 RMK A01 T00331016  RH  070%=      5-min Rain = 0
KBO1 161209Z 22010KT 03/M02 A3008 RMK A01 T00331017  RH  070%=      5-min Rain = 0
KBO1 161210Z 22009KT 03/M02 A3008 RMK A01 T00331016  RH  070%=      5-min Rain = 0
KBO1 161211Z 22009KT 03/M02 A3008 RMK A01 T00341016  RH  070%=      5-min Rain = 0
KBO1 161212Z 23010KT 03/M02 A3008 RMK A01 T00331016  RH  070%=      5-min Rain = 0
KBO1 161213Z 23009KT 03/M02 A3008 RMK A01 T00331016  RH  070%=      5-min Rain = 0
KBO1 161214Z 22010KT 03/M02 A3008 RMK A01 T00331017  RH  070%=      5-min Rain = 0
KBO1 161215Z 22009KT 03/M02 A3008 RMK A01 T00341017  RH  070%=      5-min Rain = 0
KBO1 161216Z 23009KT 03/M02 A3008 RMK A01 T00341017  RH  070%=      5-min Rain = 0
KBO1 161217Z 23009KT 03/M02 A3008 RMK A01 T00341017  RH  070%=      5-min Rain = 0
KBO1 161218Z 23009KT 03/M02 A3008 RMK A01 T00331017  RH  070%=      5-min Rain = 0
KBO1 161219Z 23009KT 03/M02 A3008 RMK A01 T00331017  RH  070%=      5-min Rain = 0
KBO1 161220Z 23008KT 03/M02 A3008 RMK A01 T00341017  RH  069%=      5-min Rain = 0
KBO1 161221Z 23008KT 03/M02 A3008 RMK A01 T00341017  RH  069%=      5-min Rain = 0
KBO1 161222Z 23008KT 03/M02 A3008 RMK A01 T00341017  RH  069%=      5-min Rain = 0
KBO1 161223Z 23008KT 03/M02 A3008 RMK A01 T00331017  RH  070%=      5-min Rain = 0
KBO1 161224Z 23007KT 03/M02 A3008 RMK A01 T00321017  RH  070%=      5-min Rain = 0
KBO1 161225Z 22008KT 03/M02 A3008 RMK A01 T00331017  RH  070%=      5-min Rain = 0
KBO1 161226Z 22007KT 03/M02 A3008 RMK A01 T00321017  RH  070%=      5-min Rain = 0
KBO1 161227Z 22007KT 03/M02 A3008 RMK A01 T00311018  RH  070%=      5-min Rain = 0
KBO1 161228Z 22008KT 03/M02 A3008 RMK A01 T00311017  RH  070%=      5-min Rain = 0
KBO1 161229Z 22008KT 03/M02 A3008 RMK A01 T00311017  RH  071%=      5-min Rain = 0
KBO1 161230Z 22008KT 03/M02 A3008 RMK A01 T00321017  RH  070%=      5-min Rain = 0
KBO1 161231Z 22008KT 03/M02 A3008 RMK A01 T00321017  RH  070%=      5-min Rain = 0
KBO1 161232Z 21008KT 03/M02 A3008 RMK A01 T00311017  RH  071%=      5-min Rain = 0
KBO1 161233Z 21009KT 03/M02 A3008 RMK A01 T00311017  RH  071%=      5-min Rain = 0
KBO1 161234Z 22009KT 03/M02 A3008 RMK A01 T00311017  RH  071%=      5-min Rain = 0
KBO1 161235Z 22009KT 03/M02 A3009 RMK A01 T00321016  RH  071%=      5-min Rain = 0
KBO1 161236Z 22009KT 03/M02 A3009 RMK A01 T00321017  RH  071%=      5-min Rain = 0
KBO1 161237Z 22009KT 03/M02 A3009 RMK A01 T00321017  RH  070%=      5-min Rain = 0
KBO1 161238Z 22009KT 03/M02 A3009 RMK A01 T00331017  RH  070%=      5-min Rain = 0
KBO1 161239Z 22008KT 03/M02 A3009 RMK A01 T00331017  RH  070%=      5-min Rain = 0
KBO1 161240Z 22009KT 03/M02 A3008 RMK A01 T00321017  RH  070%=      5-min Rain = 0
KBO1 161241Z 22008KT 03/M02 A3008 RMK A01 T00321017  RH  070%=      5-min Rain = 0
KBO1 161242Z 22008KT 03/M02 A3008 RMK A01 T00331017  RH  070%=      5-min Rain = 0
KBO1 161243Z 22008KT 03/M02 A3008 RMK A01 T00331017  RH  070%=      5-min Rain = 0
KBO1 161244Z 21008KT 03/M02 A3008 RMK A01 T00331017  RH  070%=      5-min Rain = 0
KBO1 161245Z 21009KT 03/M02 A3008 RMK A01 T00321017  RH  070%=      5-min Rain = 0
KBO1 161246Z 21008KT 03/M02 A3008 RMK A01 T00321017  RH  070%=      5-min Rain = 0
KBO1 161247Z 21008KT 03/M02 A3008 RMK A01 T00331017  RH  070%=      5-min Rain = 0
KBO1 161248Z 21009KT 03/M02 A3008 RMK A01 T00321017  RH  070%=      5-min Rain = 0
KBO1 161249Z 21008KT 03/M02 A3008 RMK A01 T00311017  RH  070%=      5-min Rain = 0
KBO1 161250Z 21009KT 03/M02 A3008 RMK A01 T00321017  RH  071%=      5-min Rain = 0
KBO1 161251Z 21009KT 03/M02 A3008 RMK A01 T00321017  RH  071%=      5-min Rain = 0
KBO1 161252Z 21009KT 03/M02 A3008 RMK A01 T00311017  RH  071%=      5-min Rain = 0
KBO1 161253Z 20010KT 03/M02 A3008 RMK A01 T00321017  RH  070%=      5-min Rain = 0
KBO1 161254Z 20009KT 03/M02 A3008 RMK A01 T00321017  RH  070%=      5-min Rain = 0
KBO1 161255Z 20009KT 03/M02 A3008 RMK A01 T00331017  RH  070%=      5-min Rain = 0
KBO1 161256Z 20009KT 03/M02 A3008 RMK A01 T00331017  RH  070%=      5-min Rain = 0
KBO1 161257Z 20010KT 03/M02 A3008 RMK A01 T00321017  RH  070%=      5-min Rain = 0
KBO1 161258Z 20010KT 03/M02 A3008 RMK A01 T00321017  RH  070%=      5-min Rain = 0
KBO1 161259Z 20010KT 03/M02 A3008 RMK A01 T00321017  RH  070%=      5-min Rain = 0
KBO1 161300Z 20010KT 03/M02 A3008 RMK A01 T00321017  RH  070%=      5-min Rain = 0
KBO1 161301Z 21010KT 03/M02 A3008 RMK A01 T00321017  RH  070%=      5-min Rain = 0
KBO1 161302Z 21009KT 03/M02 A3008 RMK A01 T00311017  RH  070%=      5-min Rain = 0
KBO1 161303Z 20009KT 03/M02 A3008 RMK A01 T00301017  RH  071%=      5-min Rain = 0
KBO1 161304Z 20008KT 03/M02 A3008 RMK A01 T00311017  RH  071%=      5-min Rain = 0
KBO1 161305Z 21008KT 03/M02 A3008 RMK A01 T00311017  RH  071%=      5-min Rain = 0
KBO1 161306Z 21008KT 03/M02 A3008 RMK A01 T00311017  RH  071%=      5-min Rain = 0
KBO1 161307Z 20008KT 03/M02 A3008 RMK A01 T00321017  RH  070%=      5-min Rain = 0
KBO1 161308Z 21007KT 03/M02 A3008 RMK A01 T00321018  RH  070%=      5-min Rain = 0
KBO1 161309Z 21007KT 03/M02 A3008 RMK A01 T00321017  RH  070%=      5-min Rain = 0
KBO1 161310Z 21008KT 03/M02 A3008 RMK A01 T00311017  RH  070%=      5-min Rain = 0
KBO1 161311Z 21009KT 03/M02 A3008 RMK A01 T00321017  RH  070%=      5-min Rain = 0
KBO1 161312Z 21008KT 03/M02 A3008 RMK A01 T00331017  RH  070%=      5-min Rain = 0
KBO1 161313Z 22007KT 03/M02 A3008 RMK A01 T00341017  RH  069%=      5-min Rain = 0
KBO1 161314Z 22007KT 03/M02 A3008 RMK A01 T00341017  RH  069%=      5-min Rain = 0
KBO1 161315Z 23007KT 03/M02 A3008 RMK A01 T00341017  RH  069%=      5-min Rain = 0
KBO1 161316Z 23007KT 03/M02 A3008 RMK A01 T00341017  RH  069%=      5-min Rain = 0
KBO1 161317Z 24006KT 03/M02 A3008 RMK A01 T00341017  RH  069%=      5-min Rain = 0
KBO1 161318Z 25005KT 03/M02 A3008 RMK A01 T00341017  RH  069%=      5-min Rain = 0
KBO1 161319Z 27004KT 03/M02 A3008 RMK A01 T00341017  RH  069%=      5-min Rain = 0
KBO1 161320Z 29004KT 03/M02 A3008 RMK A01 T00331017  RH  070%=      5-min Rain = 0
KBO1 161321Z 32004KT 03/M02 A3008 RMK A01 T00311019  RH  070%=      5-min Rain = 0
KBO1 161322Z 32004KT 03/M02 A3008 RMK A01 T00291020  RH  070%=      5-min Rain = 0
KBO1 161323Z 32004KT 03/M02 A3008 RMK A01 T00281020  RH  071%=      5-min Rain = 0
KBO1 161324Z 32003KT 03/M02 A3008 RMK A01 T00271020  RH  071%=      5-min Rain = 0
KBO1 161325Z 32003KT 03/M02 A3009 RMK A01 T00271020  RH  071%=      5-min Rain = 0
KBO1 161326Z 31003KT 03/M02 A3009 RMK A01 T00271020  RH  071%=      5-min Rain = 0
KBO1 161327Z 31003KT 03/M02 A3009 RMK A01 T00271020  RH  071%=      5-min Rain = 0
KBO1 161328Z 31003KT 03/M02 A3008 RMK A01 T00261020  RH  071%=      5-min Rain = 0
KBO1 161329Z 29003KT 03/M02 A3008 RMK A01 T00261020  RH  072%=      5-min Rain = 0
KBO1 161330Z 29004KT 03/M02 A3008 RMK A01 T00281019  RH  072%=      5-min Rain = 0
KBO1 161331Z 29004KT 03/M02 A3008 RMK A01 T00291018  RH  071%=      5-min Rain = 0
KBO1 161332Z 28003KT 03/M02 A3008 RMK A01 T00301018  RH  070%=      5-min Rain = 0
KBO1 161333Z 27003KT 03/M02 A3008 RMK A01 T00311018  RH  070%=      5-min Rain = 0
KBO1 161334Z 26004KT 03/M02 A3008 RMK A01 T00321018  RH  070%=      5-min Rain = 0
KBO1 161335Z 25006KT 03/M02 A3008 RMK A01 T00331018  RH  069%=      5-min Rain = 0
KBO1 161336Z 26005KT 04/M02 A3008 RMK A01 T00351017  RH  069%=      5-min Rain = 0
KBO1 161337Z 25005KT 04/M02 A3008 RMK A01 T00361018  RH  068%=      5-min Rain = 0
KBO1 161338Z 25006KT 04/M02 A3008 RMK A01 T00351018  RH  068%=      5-min Rain = 0
KBO1 161339Z 24007KT 03/M02 A3008 RMK A01 T00341018  RH  069%=      5-min Rain = 0
KBO1 161340Z 23007KT 04/M02 A3008 RMK A01 T00351018  RH  068%=      5-min Rain = 0
KBO1 161341Z 23007KT 04/M02 A3008 RMK A01 T00361018  RH  068%=      5-min Rain = 0
KBO1 161342Z 23007KT 04/M02 A3008 RMK A01 T00361018  RH  068%=      5-min Rain = 0
KBO1 161343Z 23009KT 04/M02 A3008 RMK A01 T00371018  RH  068%=      5-min Rain = 0
KBO1 161344Z 23008KT 04/M02 A3008 RMK A01 T00371017  RH  067%=      5-min Rain = 0
KBO1 161345Z 23008KT 04/M02 A3008 RMK A01 T00381017  RH  067%=      5-min Rain = 0
KBO1 161346Z 23009KT 04/M02 A3008 RMK A01 T00381017  RH  067%=      5-min Rain = 0
KBO1 161347Z 23009KT 04/M02 A3008 RMK A01 T00381017  RH  068%=      5-min Rain = 0
KBO1 161348Z 22009KT 04/M02 A3008 RMK A01 T00371017  RH  068%=      5-min Rain = 0
KBO1 161349Z 22009KT 04/M02 A3008 RMK A01 T00371017  RH  068%=      5-min Rain = 0
KBO1 161350Z 22009KT 04/M02 A3008 RMK A01 T00381017  RH  068%=      5-min Rain = 0
KBO1 161351Z 22009KT 04/M02 A3008 RMK A01 T00381017  RH  067%=      5-min Rain = 0
KBO1 161352Z 23008KT 04/M02 A3008 RMK A01 T00391017  RH  067%=      5-min Rain = 0
KBO1 161353Z 23009KT 04/M02 A3008 RMK A01 T00381017  RH  067%=      5-min Rain = 0
KBO1 161354Z 23009KT 04/M02 A3008 RMK A01 T00381017  RH  068%=      5-min Rain = 0
KBO1 161355Z 23008KT 04/M02 A3008 RMK A01 T00381016  RH  068%=      5-min Rain = 0
KBO1 161356Z 23008KT 04/M02 A3008 RMK A01 T00381016  RH  068%=      5-min Rain = 0
KBO1 161357Z 23009KT 04/M02 A3008 RMK A01 T00381017  RH  068%=      5-min Rain = 0
KBO1 161358Z 23009KT 04/M02 A3008 RMK A01 T00371017  RH  068%=      5-min Rain = 0
KBO1 161359Z 23010KT 04/M02 A3008 RMK A01 T00371016  RH  068%=      5-min Rain = 0
KBO1 161400Z 23009KT 04/M02 A3008 RMK A01 T00371016  RH  068%=      5-min Rain = 0
KBO1 161401Z 23010KT 04/M02 A3008 RMK A01 T00381016  RH  068%=      5-min Rain = 0
KBO1 161402Z 23010KT 04/M02 A3008 RMK A01 T00391016  RH  068%=      5-min Rain = 0
KBO1 161403Z 23011KT 04/M02 A3008 RMK A01 T00401016  RH  067%=      5-min Rain = 0
KBO1 161404Z 23010KT 04/M02 A3008 RMK A01 T00411016  RH  066%=      5-min Rain = 0
KBO1 161405Z 23009KT 04/M02 A3009 RMK A01 T00421016  RH  066%=      5-min Rain = 0
KBO1 161406Z 24010KT 04/M02 A3009 RMK A01 T00421016  RH  066%=      5-min Rain = 0
KBO1 161407Z 23010KT 04/M02 A3009 RMK A01 T00421016  RH  066%=      5-min Rain = 0
KBO1 161408Z 23008KT 04/M02 A3009 RMK A01 T00431016  RH  066%=      5-min Rain = 0
KBO1 161409Z 23008KT 04/M02 A3009 RMK A01 T00421015  RH  066%=      5-min Rain = 0
KBO1 161410Z 23009KT 04/M02 A3009 RMK A01 T00421016  RH  066%=      5-min Rain = 0
KBO1 161411Z 24009KT 04/M02 A3009 RMK A01 T00411016  RH  066%=      5-min Rain = 0
KBO1 161412Z 23008KT 04/M02 A3009 RMK A01 T00411016  RH  066%=      5-min Rain = 0
KBO1 161413Z 23008KT 04/M02 A3009 RMK A01 T00411016  RH  066%=      5-min Rain = 0
KBO1 161414Z 24009KT 04/M02 A3009 RMK A01 T00411016  RH  066%=      5-min Rain = 0
KBO1 161415Z 24009KT 04/M02 A3009 RMK A01 T00411016  RH  066%=      5-min Rain = 0
KBO1 161416Z 24010KT 04/M02 A3009 RMK A01 T00421016  RH  066%=      5-min Rain = 0
KBO1 161417Z 24010KT 04/M02 A3009 RMK A01 T00421015  RH  066%=      5-min Rain = 0
KBO1 161418Z 24009KT 04/M02 A3009 RMK A01 T00431015  RH  066%=      5-min Rain = 0
KBO1 161419Z 23009KT 04/M02 A3009 RMK A01 T00431015  RH  066%=      5-min Rain = 0
KBO1 161420Z 23010KT 04/M02 A3009 RMK A01 T00431015  RH  066%=      5-min Rain = 0
KBO1 161421Z 23010KT 04/M02 A3009 RMK A01 T00441015  RH  065%=      5-min Rain = 0
KBO1 161422Z 23010KT 05/M02 A3009 RMK A01 T00451015  RH  065%=      5-min Rain = 0
KBO1 161423Z 23009KT 05/M02 A3009 RMK A01 T00461015  RH  065%=      5-min Rain = 0
KBO1 161424Z 23008KT 05/M01 A3009 RMK A01 T00471014  RH  065%=      5-min Rain = 0
KBO1 161425Z 24008KT 05/M01 A3009 RMK A01 T00471014  RH  065%=      5-min Rain = 0
KBO1 161426Z 24008KT 05/M01 A3009 RMK A01 T00481013  RH  065%=      5-min Rain = 0
KBO1 161427Z 24008KT 05/M01 A3009 RMK A01 T00491012  RH  064%=      5-min Rain = 0
KBO1 161428Z 24009KT 05/M01 A3009 RMK A01 T00511012  RH  064%=      5-min Rain = 0
KBO1 161429Z 25009KT 05/M01 A3009 RMK A01 T00531012  RH  063%=      5-min Rain = 0
KBO1 161430Z 25008KT 05/M01 A3009 RMK A01 T00541012  RH  062%=      5-min Rain = 0
KBO1 161431Z 24008KT 05/M01 A3008 RMK A01 T00541012  RH  063%=      5-min Rain = 0
KBO1 161432Z 24009KT 05/M01 A3008 RMK A01 T00541012  RH  063%=      5-min Rain = 0
KBO1 161433Z 24009KT 05/M01 A3008 RMK A01 T00541012  RH  062%=      5-min Rain = 0
KBO1 161434Z 24010KT 05/M01 A3008 RMK A01 T00541012  RH  063%=      5-min Rain = 0
KBO1 161435Z 24010KT 05/M01 A3008 RMK A01 T00541012  RH  062%=      5-min Rain = 0
KBO1 161436Z 24010KT 06/M01 A3008 RMK A01 T00551011  RH  062%=      5-min Rain = 0
KBO1 161437Z 24010KT 06/M01 A3008 RMK A01 T00561011  RH  062%=      5-min Rain = 0
KBO1 161438Z 24010KT 06/M01 A3008 RMK A01 T00571011  RH  062%=      5-min Rain = 0
KBO1 161439Z 24010KT 06/M01 A3008 RMK A01 T00571011  RH  061%=      5-min Rain = 0
KBO1 161440Z 24010KT 06/M01 A3008 RMK A01 T00571012  RH  061%=      5-min Rain = 0
KBO1 161441Z 24010KT 06/M01 A3008 RMK A01 T00581011  RH  061%=      5-min Rain = 0
KBO1 161442Z 24011KT 06/M01 A3008 RMK A01 T00581012  RH  061%=      5-min Rain = 0
KBO1 161443Z 24011KT 06/M01 A3008 RMK A01 T00591012  RH  061%=      5-min Rain = 0
KBO1 161444Z 24011KT 06/M01 A3008 RMK A01 T00591012  RH  060%=      5-min Rain = 0
KBO1 161445Z 24010KT 06/M01 A3008 RMK A01 T00601012  RH  060%=      5-min Rain = 0
KBO1 161446Z 25010KT 06/M01 A3008 RMK A01 T00611012  RH  060%=      5-min Rain = 0
KBO1 161447Z 25011KT 06/M01 A3008 RMK A01 T00611011  RH  060%=      5-min Rain = 0
KBO1 161448Z 24010KT 06/M01 A3008 RMK A01 T00611012  RH  060%=      5-min Rain = 0
KBO1 161449Z 24010KT 06/M01 A3008 RMK A01 T00611011  RH  060%=      5-min Rain = 0
KBO1 161450Z 24009KT 06/M01 A3008 RMK A01 T00621010  RH  060%=      5-min Rain = 0
KBO1 161451Z 25010KT 06/M01 A3008 RMK A01 T00631010  RH  059%=      5-min Rain = 0
KBO1 161452Z 24010KT 06/M01 A3008 RMK A01 T00631011  RH  059%=      5-min Rain = 0
KBO1 161453Z 25009KT 06/M01 A3008 RMK A01 T00631012  RH  059%=      5-min Rain = 0
KBO1 161454Z 24009KT 06/M01 A3009 RMK A01 T00641011  RH  059%=      5-min Rain = 0
KBO1 161455Z 24010KT 07/M01 A3009 RMK A01 T00651010  RH  059%=      5-min Rain = 0
KBO1 161456Z 25011KT 07/M01 A3009 RMK A01 T00661011  RH  058%=      5-min Rain = 0
KBO1 161457Z 25011KT 07/M01 A3009 RMK A01 T00661011  RH  058%=      5-min Rain = 0
KBO1 161458Z 25008KT 07/M01 A3009 RMK A01 T00671011  RH  058%=      5-min Rain = 0
KBO1 161459Z 24010KT 07/M01 A3009 RMK A01 T00681010  RH  058%=      5-min Rain = 0
KBO1 161500Z 24010KT 07/M01 A3009 RMK A01 T00681011  RH  057%=      5-min Rain = 0
KBO1 161501Z 24009KT 07/M01 A3009 RMK A01 T00691011  RH  057%=      5-min Rain = 0
KBO1 161502Z 24009KT 07/M01 A3009 RMK A01 T00691011  RH  057%=      5-min Rain = 0
KBO1 161503Z 25008KT 07/M01 A3009 RMK A01 T00701010  RH  057%=      5-min Rain = 0
KBO1 161504Z 24008KT 07/M01 A3009 RMK A01 T00701010  RH  057%=      5-min Rain = 0
KBO1 161505Z 24009KT 07/M01 A3009 RMK A01 T00711010  RH  057%=      5-min Rain = 0
KBO1 161506Z 24008KT 07/M01 A3009 RMK A01 T00721009  RH  056%=      5-min Rain = 0
KBO1 161507Z 24008KT 07/M01 A3009 RMK A01 T00731009  RH  056%=      5-min Rain = 0
KBO1 161508Z 24007KT 07/M01 A3009 RMK A01 T00741009  RH  056%=      5-min Rain = 0
KBO1 161509Z 23008KT 08/M01 A3009 RMK A01 T00751009  RH  055%=      5-min Rain = 0
KBO1 161510Z 23008KT 08/M01 A3009 RMK A01 T00751010  RH  055%=      5-min Rain = 0
KBO1 161511Z 23010KT 08/M01 A3009 RMK A01 T00771008  RH  055%=      5-min Rain = 0
KBO1 161512Z 23011KT 08/M01 A3009 RMK A01 T00781010  RH  054%=      5-min Rain = 0
KBO1 161513Z 23011KT 08/M01 A3009 RMK A01 T00781011  RH  053%=      5-min Rain = 0
KBO1 161514Z 23011KT 08/M01 A3009 RMK A01 T00781011  RH  053%=      5-min Rain = 0
KBO1 161515Z 23013KT 08/M01 A3009 RMK A01 T00781012  RH  053%=      5-min Rain = 0
KBO1 161516Z 23012KT 08/M01 A3009 RMK A01 T00781013  RH  053%=      5-min Rain = 0
KBO1 161517Z 23012KT 08/M01 A3009 RMK A01 T00791012  RH  053%=      5-min Rain = 0
KBO1 161518Z 24013KT 08/M01 A3009 RMK A01 T00801012  RH  052%=      5-min Rain = 0
KBO1 161519Z 24011KT 08/M01 A3009 RMK A01 T00811011  RH  052%=      5-min Rain = 0
KBO1 161520Z 24011KT 08/M01 A3009 RMK A01 T00821011  RH  052%=      5-min Rain = 0
KBO1 161521Z 23012KT 08/M01 A3009 RMK A01 T00821011  RH  052%=      5-min Rain = 0
KBO1 161522Z 23011KT 08/M01 A3009 RMK A01 T00821012  RH  052%=      5-min Rain = 0
KBO1 161523Z 23010KT 08/M01 A3009 RMK A01 T00831011  RH  052%=      5-min Rain = 0
KBO1 161524Z 24009KT 08/M01 A3009 RMK A01 T00841008  RH  052%=      5-min Rain = 0
KBO1 161525Z 23010KT 09/M01 A3009 RMK A01 T00861007  RH  052%=      5-min Rain = 0
KBO1 161526Z 23013KT 09/M01 A3008 RMK A01 T00871009  RH  051%=      5-min Rain = 0
KBO1 161527Z 23012KT 09/M01 A3008 RMK A01 T00881012  RH  050%=      5-min Rain = 0
KBO1 161528Z 23014KT 09/M01 A3008 RMK A01 T00881014  RH  049%=      5-min Rain = 0
KBO1 161529Z 23014KT 09/M02 A3008 RMK A01 T00871015  RH  049%=      5-min Rain = 0
KBO1 161530Z 22013KT 09/M02 A3008 RMK A01 T00871015  RH  049%=      5-min Rain = 0
KBO1 161531Z 23014KT 09/M01 A3008 RMK A01 T00871014  RH  049%=      5-min Rain = 0
KBO1 161532Z 23013KT 09/M02 A3008 RMK A01 T00871015  RH  049%=      5-min Rain = 0
KBO1 161533Z 23013KT 09/M01 A3008 RMK A01 T00881014  RH  049%=      5-min Rain = 0
KBO1 161534Z 23014KT 09/M02 A3008 RMK A01 T00891015  RH  048%=      5-min Rain = 0
KBO1 161535Z 23014KT 09/M02 A3009 RMK A01 T00881016  RH  048%=      5-min Rain = 0
KBO1 161536Z 23013KT 09/M02 A3009 RMK A01 T00881016  RH  048%=      5-min Rain = 0
KBO1 161537Z 23013KT 09/M02 A3009 RMK A01 T00881015  RH  048%=      5-min Rain = 0
KBO1 161538Z 23013KT 09/M02 A3009 RMK A01 T00881015  RH  048%=      5-min Rain = 0
KBO1 161539Z 23014KT 09/M02 A3009 RMK A01 T00871016  RH  048%=      5-min Rain = 0
KBO1 161540Z 22012KT 09/M02 A3009 RMK A01 T00871016  RH  048%=      5-min Rain = 0
KBO1 161541Z 23012KT 09/M02 A3009 RMK A01 T00881015  RH  049%=      5-min Rain = 0
KBO1 161542Z 23013KT 09/M02 A3009 RMK A01 T00881015  RH  049%=      5-min Rain = 0
KBO1 161543Z 23011KT 09/M01 A3009 RMK A01 T00871014  RH  049%=      5-min Rain = 0
KBO1 161544Z 23010KT 09/M01 A3009 RMK A01 T00871013  RH  049%=      5-min Rain = 0
KBO1 161545Z 22011KT 09/M01 A3009 RMK A01 T00871012  RH  050%=      5-min Rain = 0
KBO1 161546Z 22011KT 09/M01 A3009 RMK A01 T00871013  RH  049%=      5-min Rain = 0
KBO1 161547Z 22011KT 09/M01 A3009 RMK A01 T00871013  RH  049%=      5-min Rain = 0
KBO1 161548Z 22011KT 09/M01 A3009 RMK A01 T00871013  RH  049%=      5-min Rain = 0
KBO1 161549Z 22010KT 09/M01 A3009 RMK A01 T00881014  RH  049%=      5-min Rain = 0
KBO1 161550Z 22010KT 09/M01 A3009 RMK A01 T00881013  RH  049%=      5-min Rain = 0
KBO1 161551Z 22009KT 09/M01 A3008 RMK A01 T00901012  RH  049%=      5-min Rain = 0
KBO1 161552Z 22009KT 09/M01 A3008 RMK A01 T00911010  RH  049%=      5-min Rain = 0
KBO1 161553Z 23011KT 09/M01 A3008 RMK A01 T00931010  RH  048%=      5-min Rain = 0
KBO1 161554Z 23010KT 10/M01 A3008 RMK A01 T00951012  RH  047%=      5-min Rain = 0
KBO1 161555Z 22010KT 10/M01 A3008 RMK A01 T00971010  RH  047%=      5-min Rain = 0
KBO1 161556Z 22011KT 10/M01 A3008 RMK A01 T00971011  RH  047%=      5-min Rain = 0
KBO1 161557Z 23011KT 10/M01 A3008 RMK A01 T00971011  RH  047%=      5-min Rain = 0
KBO1 161558Z 23010KT 10/M01 A3008 RMK A01 T00981011  RH  047%=      5-min Rain = 0
KBO1 161559Z 22011KT 10/M01 A3008 RMK A01 T00991010  RH  047%=      5-min Rain = 0
KBO1 161600Z 23010KT 10/M01 A3008 RMK A01 T01011012  RH  045%=      5-min Rain = 0
KBO1 161601Z 22010KT 10/M01 A3008 RMK A01 T01011012  RH  045%=      5-min Rain = 0
KBO1 161602Z 22010KT 10/M01 A3008 RMK A01 T01021009  RH  046%=      5-min Rain = 0
KBO1 161603Z 23012KT 11/M01 A3008 RMK A01 T01051010  RH  045%=      5-min Rain = 0
KBO1 161604Z 23013KT 11/M02 A3008 RMK A01 T01061015  RH  043%=      5-min Rain = 0
KBO1 161605Z 23013KT 11/M02 A3008 RMK A01 T01071017  RH  042%=      5-min Rain = 0
KBO1 161606Z 22012G17KT 11/M02 A3008 RMK A01 T01061017  RH  042%=      5-min Rain = 0
KBO1 161607Z 22014KT 11/M02 A3008 RMK A01 T01061018  RH  042%=      5-min Rain = 0
KBO1 161608Z 22014KT 11/M02 A3008 RMK A01 T01071019  RH  041%=      5-min Rain = 0
KBO1 161609Z 22015KT 11/M02 A3008 RMK A01 T01081020  RH  041%=      5-min Rain = 0
KBO1 161610Z 22013KT 11/M02 A3008 RMK A01 T01081020  RH  041%=      5-min Rain = 0
KBO1 161611Z 22012KT 11/M02 A3008 RMK A01 T01081019  RH  041%=      5-min Rain = 0
KBO1 161612Z 22013KT 11/M02 A3008 RMK A01 T01091017  RH  041%=      5-min Rain = 0
KBO1 161613Z 23012KT 11/M02 A3008 RMK A01 T01101018  RH  041%=      5-min Rain = 0
KBO1 161614Z 23012KT 11/M02 A3008 RMK A01 T01111018  RH  041%=      5-min Rain = 0
KBO1 161615Z 23013KT 11/M02 A3008 RMK A01 T01121016  RH  041%=      5-min Rain = 0
KBO1 161616Z 23013KT 11/M02 A3008 RMK A01 T01131018  RH  040%=      5-min Rain = 0
KBO1 161617Z 22014KT 11/M02 A3008 RMK A01 T01131018  RH  040%=      5-min Rain = 0
KBO1 161618Z 22013KT 11/M02 A3008 RMK A01 T01131019  RH  040%=      5-min Rain = 0
KBO1 161619Z 22014KT 11/M02 A3008 RMK A01 T01141018  RH  040%=      5-min Rain = 0
KBO1 161620Z 23014KT 11/M02 A3008 RMK A01 T01141017  RH  040%=      5-min Rain = 0
KBO1 161621Z 22014KT 12/M02 A3008 RMK A01 T01151017  RH  040%=      5-min Rain = 0
KBO1 161622Z 22015KT 12/M02 A3008 RMK A01 T01151017  RH  040%=      5-min Rain = 0
KBO1 161623Z 22014KT 12/M02 A3008 RMK A01 T01171018  RH  039%=      5-min Rain = 0
KBO1 161624Z 23013KT 12/M02 A3008 RMK A01 T01181016  RH  039%=      5-min Rain = 0
KBO1 161625Z 23013KT 12/M02 A3008 RMK A01 T01191017  RH  039%=      5-min Rain = 0
KBO1 161626Z 23016KT 12/M02 A3008 RMK A01 T01201019  RH  038%=      5-min Rain = 0
KBO1 161627Z 23013KT 12/M02 A3008 RMK A01 T01201020  RH  038%=      5-min Rain = 0
KBO1 161628Z 24015KT 12/M02 A3008 RMK A01 T01211019  RH  038%=      5-min Rain = 0
KBO1 161629Z 24012KT 12/M02 A3008 RMK A01 T01221019  RH  038%=      5-min Rain = 0
KBO1 161630Z 23014KT 12/M02 A3008 RMK A01 T01241017  RH  038%=      5-min Rain = 0
KBO1 161631Z 23014KT 13/M02 A3008 RMK A01 T01251019  RH  037%=      5-min Rain = 0
KBO1 161632Z 23013KT 13/M02 A3008 RMK A01 T01251018  RH  037%=      5-min Rain = 0
KBO1 161633Z 23014KT 13/M02 A3008 RMK A01 T01261016  RH  037%=      5-min Rain = 0
KBO1 161634Z 23015KT 13/M02 A3008 RMK A01 T01281018  RH  036%=      5-min Rain = 0
KBO1 161635Z 23014KT 13/M02 A3008 RMK A01 T01281019  RH  036%=      5-min Rain = 0
KBO1 161636Z 23013KT 13/M02 A3008 RMK A01 T01301019  RH  036%=      5-min Rain = 0
KBO1 161637Z 23014KT 13/M02 A3008 RMK A01 T01311022  RH  034%=      5-min Rain = 0
KBO1 161638Z 23015KT 13/M02 A3008 RMK A01 T01321024  RH  034%=      5-min Rain = 0
KBO1 161639Z 24013KT 13/M02 A3008 RMK A01 T01341023  RH  034%=      5-min Rain = 0
KBO1 161640Z 24011KT 14/M02 A3008 RMK A01 T01371019  RH  034%=      5-min Rain = 0
KBO1 161641Z 24015KT 14/M02 A3008 RMK A01 T01401020  RH  033%=      5-min Rain = 0
KBO1 161642Z 24015KT 14/M02 A3008 RMK A01 T01401024  RH  032%=      5-min Rain = 0
KBO1 161643Z 24014KT 14/M02 A3008 RMK A01 T01401024  RH  032%=      5-min Rain = 0
KBO1 161644Z 24014KT 14/M02 A3008 RMK A01 T01401023  RH  032%=      5-min Rain = 0
KBO1 161645Z 24013KT 14/M02 A3008 RMK A01 T01421022  RH  032%=      5-min Rain = 0
KBO1 161646Z 24014KT 14/M02 A3008 RMK A01 T01431022  RH  032%=      5-min Rain = 0
KBO1 161647Z 24014KT 14/M02 A3008 RMK A01 T01431022  RH  032%=      5-min Rain = 0
KBO1 161648Z 23015KT 14/M02 A3008 RMK A01 T01441021  RH  032%=      5-min Rain = 0
KBO1 161649Z 23014KT 15/M02 A3008 RMK A01 T01451022  RH  031%=      5-min Rain = 0
KBO1 161650Z 23015KT 15/M02 A3008 RMK A01 T01451022  RH  032%=      5-min Rain = 0
KBO1 161651Z 24015KT 15/M02 A3007 RMK A01 T01451022  RH  031%=      5-min Rain = 0
KBO1 161652Z 23016KT 14/M02 A3007 RMK A01 T01441023  RH  031%=      5-min Rain = 0
KBO1 161653Z 23014KT 14/M02 A3007 RMK A01 T01441023  RH  032%=      5-min Rain = 0
KBO1 161654Z 23013KT 15/M02 A3007 RMK A01 T01451021  RH  032%=      5-min Rain = 0
KBO1 161655Z 23015KT 15/M02 A3007 RMK A01 T01471020  RH  032%=      5-min Rain = 0
KBO1 161656Z 24017KT 15/M02 A3007 RMK A01 T01461022  RH  031%=      5-min Rain = 0
KBO1 161657Z 24014KT 15/M02 A3007 RMK A01 T01461022  RH  031%=      5-min Rain = 0
KBO1 161658Z 23016KT 15/M02 A3007 RMK A01 T01471019  RH  032%=      5-min Rain = 0
KBO1 161659Z 24014KT 15/M02 A3007 RMK A01 T01481022  RH  031%=      5-min Rain = 0
KBO1 161700Z 24013KT 15/M02 A3007 RMK A01 T01481021  RH  031%=      5-min Rain = 0
KBO1 161701Z 23015KT 15/M02 A3007 RMK A01 T01501019  RH  031%=      5-min Rain = 0
KBO1 161702Z 23014KT 15/M02 A3007 RMK A01 T01501020  RH  031%=      5-min Rain = 0
KBO1 161703Z 22016KT 15/M02 A3007 RMK A01 T01501020  RH  031%=      5-min Rain = 0
KBO1 161704Z 23014KT 15/M02 A3007 RMK A01 T01511020  RH  031%=      5-min Rain = 0
KBO1 161705Z 23016KT 15/M02 A3007 RMK A01 T01511021  RH  031%=      5-min Rain = 0
KBO1 161706Z 22015KT 15/M02 A3007 RMK A01 T01531021  RH  030%=      5-min Rain = 0
KBO1 161707Z 22016KT 15/M02 A3007 RMK A01 T01531020  RH  030%=      5-min Rain = 0
KBO1 161708Z 23016KT 15/M02 A3006 RMK A01 T01531021  RH  030%=      5-min Rain = 0
KBO1 161709Z 23015KT 15/M02 A3006 RMK A01 T01541021  RH  030%=      5-min Rain = 0
KBO1 161710Z 22016KT 15/M02 A3006 RMK A01 T01541021  RH  030%=      5-min Rain = 0
KBO1 161711Z 22016KT 16/M02 A3006 RMK A01 T01551022  RH  030%=      5-min Rain = 0
KBO1 161712Z 22017KT 15/M02 A3006 RMK A01 T01541023  RH  029%=      5-min Rain = 0
KBO1 161713Z 23015KT 15/M02 A3006 RMK A01 T01541023  RH  030%=      5-min Rain = 0
KBO1 161714Z 23016KT 16/M02 A3006 RMK A01 T01571020  RH  030%=      5-min Rain = 0
KBO1 161715Z 22015KT 16/M02 A3006 RMK A01 T01581021  RH  029%=      5-min Rain = 0
KBO1 161716Z 22017KT 16/M02 A3006 RMK A01 T01571022  RH  029%=      5-min Rain = 0
KBO1 161717Z 23017KT 16/M03 A3006 RMK A01 T01581025  RH  028%=      5-min Rain = 0
KBO1 161718Z 23015KT 16/M02 A3006 RMK A01 T01591023  RH  029%=      5-min Rain = 0
KBO1 161719Z 23014KT 16/M02 A3006 RMK A01 T01581022  RH  029%=      5-min Rain = 0
KBO1 161720Z 22013KT 16/M02 A3006 RMK A01 T01591022  RH  029%=      5-min Rain = 0
KBO1 161721Z 23013KT 16/M02 A3006 RMK A01 T01611019  RH  029%=      5-min Rain = 0
KBO1 161722Z 22013KT 17/M02 A3006 RMK A01 T01651016  RH  029%=      5-min Rain = 0
KBO1 161723Z 22014KT 17/M02 A3006 RMK A01 T01671018  RH  028%=      5-min Rain = 0
KBO1 161724Z 23013KT 17/M02 A3006 RMK A01 T01661020  RH  028%=      5-min Rain = 0
KBO1 161725Z 22014KT 16/M02 A3006 RMK A01 T01641021  RH  028%=      5-min Rain = 0
KBO1 161726Z 24012KT 16/M02 A3006 RMK A01 T01641020  RH  028%=      5-min Rain = 0
KBO1 161727Z 24011KT 17/M02 A3006 RMK A01 T01681015  RH  029%=      5-min Rain = 0
KBO1 161728Z 24013KT 17/M02 A3006 RMK A01 T01721015  RH  028%=      5-min Rain = 0
KBO1 161729Z 23012KT 17/M02 A3006 RMK A01 T01741018  RH  027%=      5-min Rain = 0
KBO1 161730Z 23013KT 17/M02 A3006 RMK A01 T01731019  RH  027%=      5-min Rain = 0
KBO1 161731Z 22014KT 17/M02 A3006 RMK A01 T01721019  RH  027%=      5-min Rain = 0
KBO1 161732Z 23013KT 17/M02 A3006 RMK A01 T01711021  RH  027%=      5-min Rain = 0
KBO1 161733Z 22013KT 17/M02 A3006 RMK A01 T01711021  RH  027%=      5-min Rain = 0
KBO1 161734Z 24013KT 17/M02 A3006 RMK A01 T01711020  RH  027%=      5-min Rain = 0
KBO1 161735Z 24013KT 17/M02 A3006 RMK A01 T01741021  RH  026%=      5-min Rain = 0
KBO1 161736Z 24013KT 18/M02 A3006 RMK A01 T01751019  RH  027%=      5-min Rain = 0
KBO1 161737Z 23015KT 18/M02 A3005 RMK A01 T01781021  RH  026%=      5-min Rain = 0
KBO1 161738Z 23015KT 18/M03 A3005 RMK A01 T01771026  RH  025%=      5-min Rain = 0
KBO1 161739Z 23016KT 17/M03 A3005 RMK A01 T01741026  RH  026%=      5-min Rain = 0
KBO1 161740Z 23015KT 17/M02 A3005 RMK A01 T01731024  RH  026%=      5-min Rain = 0
KBO1 161741Z 22017KT 17/M03 A3005 RMK A01 T01721028  RH  025%=      5-min Rain = 0
KBO1 161742Z 22015KT 17/M03 A3005 RMK A01 T01721029  RH  025%=      5-min Rain = 0
KBO1 161743Z 23014KT 17/M03 A3005 RMK A01 T01731028  RH  025%=      5-min Rain = 0
KBO1 161744Z 24012KT 17/M02 A3005 RMK A01 T01741024  RH  026%=      5-min Rain = 0
KBO1 161745Z 25016KT 18/M02 A3005 RMK A01 T01771022  RH  026%=      5-min Rain = 0
KBO1 161746Z 24015KT 18/M03 A3005 RMK A01 T01771026  RH  025%=      5-min Rain = 0
KBO1 161747Z 24016KT 18/M03 A3005 RMK A01 T01751027  RH  025%=      5-min Rain = 0
KBO1 161748Z 24015KT 18/M03 A3005 RMK A01 T01751025  RH  025%=      5-min Rain = 0
KBO1 161749Z 23014KT 18/M03 A3005 RMK A01 T01761025  RH  025%=      5-min Rain = 0
KBO1 161750Z 22014KT 18/M02 A3005 RMK A01 T01761024  RH  026%=      5-min Rain = 0
KBO1 161751Z 22013KT 18/M02 A3005 RMK A01 T01761024  RH  025%=      5-min Rain = 0
KBO1 161752Z 23015KT 18/M02 A3005 RMK A01 T01761023  RH  026%=      5-min Rain = 0
KBO1 161753Z 22016KT 18/M03 A3005 RMK A01 T01781026  RH  025%=      5-min Rain = 0
KBO1 161754Z 23015KT 18/M03 A3005 RMK A01 T01771027  RH  025%=      5-min Rain = 0
KBO1 161755Z 23014KT 18/M03 A3005 RMK A01 T01761026  RH  025%=      5-min Rain = 0
KBO1 161756Z 24015KT 18/M03 A3005 RMK A01 T01771026  RH  025%=      5-min Rain = 0
KBO1 161757Z 23014KT 18/M03 A3005 RMK A01 T01771026  RH  025%=      5-min Rain = 0
KBO1 161758Z 24014KT 18/M03 A3004 RMK A01 T01771026  RH  025%=      5-min Rain = 0
KBO1 161759Z 24013KT 18/M02 A3004 RMK A01 T01771023  RH  025%=      5-min Rain = 0
KBO1 161800Z 22013KT 18/M02 A3004 RMK A01 T01791020  RH  026%=      5-min Rain = 0
KBO1 161801Z 23013KT 18/M02 A3004 RMK A01 T01801022  RH  025%=      5-min Rain = 0
KBO1 161802Z 24015KT 18/M02 A3004 RMK A01 T01801023  RH  025%=      5-min Rain = 0
KBO1 161803Z 24014KT 18/M03 A3004 RMK A01 T01811025  RH  025%=      5-min Rain = 0
KBO1 161804Z 23015KT 18/M03 A3004 RMK A01 T01801027  RH  024%=      5-min Rain = 0
KBO1 161805Z 23014KT 18/M03 A3004 RMK A01 T01811030  RH  024%=      5-min Rain = 0
KBO1 161806Z 22013KT 18/M03 A3004 RMK A01 T01811029  RH  024%=      5-min Rain = 0
KBO1 161807Z 22013KT 18/M03 A3004 RMK A01 T01811028  RH  024%=      5-min Rain = 0
KBO1 161808Z 23011KT 18/M03 A3004 RMK A01 T01811027  RH  024%=      5-min Rain = 0
KBO1 161809Z 22012KT 18/M02 A3004 RMK A01 T01831024  RH  024%=      5-min Rain = 0
KBO1 161810Z 22013KT 18/M03 A3004 RMK A01 T01841025  RH  024%=      5-min Rain = 0
KBO1 161811Z 23012KT 18/M03 A3004 RMK A01 T01821025  RH  024%=      5-min Rain = 0
KBO1 161812Z 23012KT 18/M03 A3004 RMK A01 T01811025  RH  024%=      5-min Rain = 0
KBO1 161813Z 24011KT 18/M03 A3004 RMK A01 T01811027  RH  024%=      5-min Rain = 0
KBO1 161814Z 24013KT 18/M03 A3004 RMK A01 T01811025  RH  025%=      5-min Rain = 0
KBO1 161815Z 23012KT 18/M03 A3004 RMK A01 T01821027  RH  024%=      5-min Rain = 0
KBO1 161816Z 24012KT 18/M03 A3004 RMK A01 T01811029  RH  024%=      5-min Rain = 0
KBO1 161817Z 24013KT 18/M03 A3004 RMK A01 T01801028  RH  024%=      5-min Rain = 0
KBO1 161818Z 23013KT 18/M03 A3004 RMK A01 T01801034  RH  023%=      5-min Rain = 0
KBO1 161819Z 24012KT 18/M04 A3004 RMK A01 T01801035  RH  023%=      5-min Rain = 0
KBO1 161820Z 24013KT 18/M03 A3004 RMK A01 T01811032  RH  023%=      5-min Rain = 0
KBO1 161821Z 24014KT 18/M03 A3003 RMK A01 T01821031  RH  023%=      5-min Rain = 0
KBO1 161822Z 25013KT 18/M03 A3003 RMK A01 T01831030  RH  023%=      5-min Rain = 0
KBO1 161823Z 25014KT 18/M03 A3003 RMK A01 T01841030  RH  023%=      5-min Rain = 0
KBO1 161824Z 24013KT 18/M03 A3003 RMK A01 T01841028  RH  023%=      5-min Rain = 0
KBO1 161825Z 25013KT 19/M03 A3003 RMK A01 T01851028  RH  023%=      5-min Rain = 0
KBO1 161826Z 25013KT 19/M03 A3003 RMK A01 T01851030  RH  023%=      5-min Rain = 0
KBO1 161827Z 25013KT 19/M03 A3003 RMK A01 T01851030  RH  023%=      5-min Rain = 0
KBO1 161828Z 24013KT 19/M03 A3003 RMK A01 T01861029  RH  023%=      5-min Rain = 0
KBO1 161829Z 24010KT 19/M03 A3003 RMK A01 T01861026  RH  024%=      5-min Rain = 0
KBO1 161830Z 25012KT 19/M03 A3003 RMK A01 T01881027  RH  023%=      5-min Rain = 0
KBO1 161831Z 23011KT 19/M03 A3003 RMK A01 T01881029  RH  023%=      5-min Rain = 0
KBO1 161832Z 23012KT 19/M03 A3003 RMK A01 T01891029  RH  023%=      5-min Rain = 0
KBO1 161833Z 24013KT 19/M03 A3003 RMK A01 T01921027  RH  023%=      5-min Rain = 0
KBO1 161834Z 24011KT 19/M03 A3003 RMK A01 T01921028  RH  022%=      5-min Rain = 0
KBO1 161835Z 23012KT 19/M03 A3003 RMK A01 T01901029  RH  022%=      5-min Rain = 0
KBO1 161836Z 24014KT 19/M03 A3002 RMK A01 T01901029  RH  022%=      5-min Rain = 0
KBO1 161837Z 23013KT 19/M03 A3002 RMK A01 T01901028  RH  023%=      5-min Rain = 0
KBO1 161838Z 23012KT 19/M03 A3002 RMK A01 T01901028  RH  023%=      5-min Rain = 0
KBO1 161839Z 23011KT 19/M03 A3002 RMK A01 T01901027  RH  023%=      5-min Rain = 0
KBO1 161840Z 23012KT 19/M03 A3002 RMK A01 T01901028  RH  023%=      5-min Rain = 0
KBO1 161841Z 23011KT 19/M03 A3002 RMK A01 T01921026  RH  023%=      5-min Rain = 0
KBO1 161842Z 24011KT 19/M03 A3002 RMK A01 T01941026  RH  022%=      5-min Rain = 0
KBO1 161843Z 23012KT 19/M03 A3002 RMK A01 T01931027  RH  022%=      5-min Rain = 0
KBO1 161844Z 23010KT 19/M03 A3002 RMK A01 T01921026  RH  023%=      5-min Rain = 0
KBO1 161845Z 24010KT 19/M03 A3002 RMK A01 T01911026  RH  023%=      5-min Rain = 0
KBO1 161846Z 24011KT 19/M03 A3002 RMK A01 T01911026  RH  023%=      5-min Rain = 0
KBO1 161847Z 24013KT 19/M03 A3002 RMK A01 T01921026  RH  023%=      5-min Rain = 0
KBO1 161848Z 25013KT 19/M03 A3002 RMK A01 T01921028  RH  022%=      5-min Rain = 0
KBO1 161849Z 25008KT 19/M03 A3002 RMK A01 T01901027  RH  023%=      5-min Rain = 0
KBO1 161850Z 24009KT 19/M02 A3002 RMK A01 T01901024  RH  023%=      5-min Rain = 0
KBO1 161851Z 24011KT 19/M02 A3002 RMK A01 T01911024  RH  023%=      5-min Rain = 0
KBO1 161852Z 24009KT 19/M02 A3002 RMK A01 T01911024  RH  023%=      5-min Rain = 0
KBO1 161853Z 23012KT 19/M03 A3002 RMK A01 T01911026  RH  023%=      5-min Rain = 0
KBO1 161854Z 23010KT 19/M03 A3002 RMK A01 T01911025  RH  023%=      5-min Rain = 0
KBO1 161855Z 24011KT 19/M02 A3002 RMK A01 T01901024  RH  023%=      5-min Rain = 0
KBO1 161856Z 23012KT 19/M02 A3002 RMK A01 T01901024  RH  023%=      5-min Rain = 0
KBO1 161857Z 23010KT 19/M03 A3001 RMK A01 T01901025  RH  023%=      5-min Rain = 0
KBO1 161858Z 23012KT 19/M03 A3001 RMK A01 T01891025  RH  023%=      5-min Rain = 0
KBO1 161859Z 23012KT 19/M03 A3001 RMK A01 T01891026  RH  023%=      5-min Rain = 0
KBO1 161900Z 24010KT 19/M02 A3001 RMK A01 T01881022  RH  024%=      5-min Rain = 0
KBO1 161901Z 23011KT 19/M02 A3001 RMK A01 T01891022  RH  024%=      5-min Rain = 0
KBO1 161902Z 24010KT 19/M02 A3001 RMK A01 T01901020  RH  024%=      5-min Rain = 0
KBO1 161903Z 23012KT 19/M02 A3001 RMK A01 T01891021  RH  024%=      5-min Rain = 0
KBO1 161904Z 23011KT 19/M02 A3001 RMK A01 T01891023  RH  024%=      5-min Rain = 0
KBO1 161905Z 23012KT 19/M03 A3001 RMK A01 T01881025  RH  023%=      5-min Rain = 0
KBO1 161906Z 23011KT 19/M03 A3001 RMK A01 T01881025  RH  024%=      5-min Rain = 0
KBO1 161907Z 23009KT 19/M02 A3001 RMK A01 T01881023  RH  024%=      5-min Rain = 0
KBO1 161908Z 23011KT 19/M02 A3001 RMK A01 T01881024  RH  024%=      5-min Rain = 0
KBO1 161909Z 23011KT 19/M03 A3001 RMK A01 T01881025  RH  023%=      5-min Rain = 0
KBO1 161910Z 22012KT 19/M03 A3001 RMK A01 T01881025  RH  024%=      5-min Rain = 0
KBO1 161911Z 23011KT 19/M02 A3001 RMK A01 T01881023  RH  024%=      5-min Rain = 0
KBO1 161912Z 22011KT 19/M02 A30 RMK A01 T01881022  RH  024%=      5-min Rain = 0
KBO1 161913Z 22010KT 19/M02 A30 RMK A01 T01871024  RH  024%=      5-min Rain = 0
KBO1 161914Z 22010KT 19/M02 A30 RMK A01 T01851022  RH  024%=      5-min Rain = 0
KBO1 161915Z 21009KT 19/M02 A30 RMK A01 T01851024  RH  024%=      5-min Rain = 0
KBO1 161916Z 21010KT 19/M02 A30 RMK A01 T01861022  RH  024%=      5-min Rain = 0
KBO1 161917Z 22010KT 19/M02 A30 RMK A01 T01861021  RH  025%=      5-min Rain = 0
KBO1 161918Z 23010KT 19/M02 A30 RMK A01 T01881018  RH  025%=      5-min Rain = 0
KBO1 161919Z 23010KT 19/M02 A30 RMK A01 T01891021  RH  024%=      5-min Rain = 0
KBO1 161920Z 22011KT 19/M02 A30 RMK A01 T01881021  RH  024%=      5-min Rain = 0
KBO1 161921Z 22012KT 19/M02 A30 RMK A01 T01871022  RH  024%=      5-min Rain = 0
KBO1 161922Z 22011KT 19/M02 A30 RMK A01 T01861021  RH  024%=      5-min Rain = 0
KBO1 161923Z 22010KT 19/M02 A30 RMK A01 T01861021  RH  025%=      5-min Rain = 0
KBO1 161924Z 21010KT 19/M02 A30 RMK A01 T01861019  RH  025%=      5-min Rain = 0
KBO1 161925Z 21010KT 19/M02 A30 RMK A01 T01861019  RH  025%=      5-min Rain = 0
KBO1 161926Z 22010KT 19/M02 A30 RMK A01 T01861019  RH  025%=      5-min Rain = 0
KBO1 161927Z 22010KT 19/M02 A30 RMK A01 T01861019  RH  025%=      5-min Rain = 0
KBO1 161928Z 22012KT 19/M02 A30 RMK A01 T01861019  RH  025%=      5-min Rain = 0
KBO1 161929Z 23010KT 19/M02 A30 RMK A01 T01861020  RH  025%=      5-min Rain = 0
KBO1 161930Z 23009KT 19/M02 A30 RMK A01 T01861019  RH  025%=      5-min Rain = 0
KBO1 161931Z 22011KT 19/M02 A30 RMK A01 T01861020  RH  025%=      5-min Rain = 0
KBO1 161932Z 23011KT 19/M02 A2999 RMK A01 T01861020  RH  025%=      5-min Rain = 0
KBO1 161933Z 24008KT 19/M02 A2999 RMK A01 T01861019  RH  025%=      5-min Rain = 0
KBO1 161934Z 24012KT 19/M02 A2999 RMK A01 T01871019  RH  025%=      5-min Rain = 0
KBO1 161935Z 23010KT 19/M02 A2999 RMK A01 T01871021  RH  024%=      5-min Rain = 0
KBO1 161936Z 24009KT 19/M02 A2999 RMK A01 T01861022  RH  024%=      5-min Rain = 0
KBO1 161937Z 23008KT 19/M02 A2999 RMK A01 T01871020  RH  025%=      5-min Rain = 0
KBO1 161938Z 23010KT 19/M02 A2999 RMK A01 T01871019  RH  025%=      5-min Rain = 0
KBO1 161939Z 22009KT 19/M02 A2999 RMK A01 T01881021  RH  024%=      5-min Rain = 0
KBO1 161940Z 23010KT 19/M02 A2999 RMK A01 T01881021  RH  024%=      5-min Rain = 0
KBO1 161941Z 23011KT 19/M02 A2999 RMK A01 T01891022  RH  024%=      5-min Rain = 0
KBO1 161942Z 25009KT 19/M02 A2999 RMK A01 T01901020  RH  024%=      5-min Rain = 0
KBO1 161943Z 25009KT 19/M02 A2999 RMK A01 T01901019  RH  024%=      5-min Rain = 0
KBO1 161944Z 24009KT 19/M02 A2999 RMK A01 T01911019  RH  024%=      5-min Rain = 0
KBO1 161945Z 23010KT 19/M02 A2999 RMK A01 T01911018  RH  024%=      5-min Rain = 0
KBO1 161946Z 23010KT 19/M02 A2999 RMK A01 T01911019  RH  024%=      5-min Rain = 0
KBO1 161947Z 23009KT 19/M02 A2999 RMK A01 T01921017  RH  024%=      5-min Rain = 0
KBO1 161948Z 23010KT 19/M02 A2999 RMK A01 T01931021  RH  023%=      5-min Rain = 0
KBO1 161949Z 23011KT 19/M02 A2999 RMK A01 T01931021  RH  024%=      5-min Rain = 0
KBO1 161950Z 23011KT 19/M02 A2999 RMK A01 T01931020  RH  024%=      5-min Rain = 0
KBO1 161951Z 23011KT 19/M02 A2998 RMK A01 T01941019  RH  024%=      5-min Rain = 0
KBO1 161952Z 23010KT 19/M02 A2998 RMK A01 T01941021  RH  023%=      5-min Rain = 0
KBO1 161953Z 22009KT 19/M02 A2998 RMK A01 T01941021  RH  023%=      5-min Rain = 0
KBO1 161954Z 22009KT 19/M02 A2998 RMK A01 T01941020  RH  023%=      5-min Rain = 0
KBO1 161955Z 21009KT 19/M02 A2998 RMK A01 T01941019  RH  024%=      5-min Rain = 0
KBO1 161956Z 23011KT 19/M02 A2998 RMK A01 T01941019  RH  024%=      5-min Rain = 0
KBO1 161957Z 24010KT 20/M02 A2998 RMK A01 T01951022  RH  023%=      5-min Rain = 0
KBO1 161958Z 23009KT 20/M02 A2998 RMK A01 T01951022  RH  023%=      5-min Rain = 0
KBO1 161959Z 23011KT 20/M02 A2998 RMK A01 T01951022  RH  023%=      5-min Rain = 0
KBO1 162000Z 22012KT 19/M02 A2998 RMK A01 T01941021  RH  023%=      5-min Rain = 0
KBO1 162001Z 23010KT 19/M02 A2998 RMK A01 T01941023  RH  023%=      5-min Rain = 0
KBO1 162002Z 22010KT 19/M02 A2998 RMK A01 T01931022  RH  023%=      5-min Rain = 0
KBO1 162003Z 22010KT 19/M02 A2998 RMK A01 T01921021  RH  023%=      5-min Rain = 0
KBO1 162004Z 22011KT 19/M02 A2998 RMK A01 T01911018  RH  024%=      5-min Rain = 0
KBO1 162005Z 23009KT 19/M02 A2998 RMK A01 T01921018  RH  024%=      5-min Rain = 0
KBO1 162006Z 22010KT 19/M02 A2998 RMK A01 T01941017  RH  024%=      5-min Rain = 0
KBO1 162007Z 22009KT 20/M02 A2998 RMK A01 T01971017  RH  024%=      5-min Rain = 0
KBO1 162008Z 23009KT 20/M02 A2998 RMK A01 T01991018  RH  023%=      5-min Rain = 0
KBO1 162009Z 22009KT 20/M02 A2998 RMK A01 T01991021  RH  023%=      5-min Rain = 0
KBO1 162010Z 21008KT 20/M02 A2998 RMK A01 T01981020  RH  023%=      5-min Rain = 0
KBO1 162011Z 23009KT 20/M02 A2998 RMK A01 T01971016  RH  024%=      5-min Rain = 0
KBO1 162012Z 22010KT 20/M02 A2998 RMK A01 T01981019  RH  023%=      5-min Rain = 0
KBO1 162013Z 22008KT 20/M02 A2998 RMK A01 T01971021  RH  023%=      5-min Rain = 0
KBO1 162014Z 22010KT 20/M02 A2998 RMK A01 T01961021  RH  023%=      5-min Rain = 0
KBO1 162015Z 22008KT 20/M02 A2998 RMK A01 T01971024  RH  022%=      5-min Rain = 0
KBO1 162016Z 22008KT 20/M02 A2998 RMK A01 T01971024  RH  022%=      5-min Rain = 0
KBO1 162017Z 23009KT 20/M02 A2998 RMK A01 T01991021  RH  022%=      5-min Rain = 0
KBO1 162018Z 22011KT 20/M02 A2997 RMK A01 T02011017  RH  023%=      5-min Rain = 0
KBO1 162019Z 22009KT 20/M02 A2997 RMK A01 T02021019  RH  023%=      5-min Rain = 0
KBO1 162020Z 22008KT 20/M02 A2997 RMK A01 T02001022  RH  022%=      5-min Rain = 0
KBO1 162021Z 22010KT 20/M02 A2997 RMK A01 T01971022  RH  023%=      5-min Rain = 0
KBO1 162022Z 23011KT 20/M02 A2997 RMK A01 T01971022  RH  023%=      5-min Rain = 0
KBO1 162023Z 22010KT 20/M02 A2997 RMK A01 T01971023  RH  023%=      5-min Rain = 0
KBO1 162024Z 22011KT 20/M02 A2997 RMK A01 T01981020  RH  023%=      5-min Rain = 0
KBO1 162025Z 22011KT 20/M02 A2997 RMK A01 T01991024  RH  022%=      5-min Rain = 0
KBO1 162026Z 21010KT 20/M02 A2997 RMK A01 T01991022  RH  022%=      5-min Rain = 0
KBO1 162027Z 21008KT 20/M02 A2997 RMK A01 T01991020  RH  023%=      5-min Rain = 0
KBO1 162028Z 21008KT 20/M02 A2997 RMK A01 T01991017  RH  023%=      5-min Rain = 0
KBO1 162029Z 22010KT 20/M02 A2997 RMK A01 T02011020  RH  022%=      5-min Rain = 0
KBO1 162030Z 22010KT 20/M02 A2997 RMK A01 T02031022  RH  022%=      5-min Rain = 0
KBO1 162031Z 22010KT 20/M02 A2997 RMK A01 T02031024  RH  021%=      5-min Rain = 0
KBO1 162032Z 23007KT 20/M03 A2997 RMK A01 T02031027  RH  021%=      5-min Rain = 0
KBO1 162033Z 22009KT 20/M03 A2997 RMK A01 T02031030  RH  021%=      5-min Rain = 0
KBO1 162034Z 23007KT 20/M04 A2997 RMK A01 T02031035  RH  020%=      5-min Rain = 0
KBO1 162035Z 23009KT 20/M04 A2997 RMK A01 T02031035  RH  020%=      5-min Rain = 0
KBO1 162036Z 24010KT 20/M04 A2997 RMK A01 T02031037  RH  020%=      5-min Rain = 0
KBO1 162037Z 23009KT 20/M04 A2997 RMK A01 T02031036  RH  020%=      5-min Rain = 0
KBO1 162038Z 23009KT 20/M03 A2997 RMK A01 T02021032  RH  020%=      5-min Rain = 0
KBO1 162039Z 22007KT 20/M04 A2997 RMK A01 T02021037  RH  020%=      5-min Rain = 0
KBO1 162040Z 23007KT 20/M04 A2997 RMK A01 T02011041  RH  019%=      5-min Rain = 0
KBO1 162041Z 23008KT 20/M04 A2997 RMK A01 T02001037  RH  020%=      5-min Rain = 0
KBO1 162042Z 23009KT 20/M04 A2997 RMK A01 T02001039  RH  020%=      5-min Rain = 0
KBO1 162043Z 22009KT 20/M04 A2997 RMK A01 T02001039  RH  020%=      5-min Rain = 0
KBO1 162044Z 24011KT 20/M04 A2997 RMK A01 T02001039  RH  020%=      5-min Rain = 0
KBO1 162045Z 24009KT 20/M04 A2997 RMK A01 T02001042  RH  019%=      5-min Rain = 0
KBO1 162046Z 25009KT 20/M04 A2997 RMK A01 T02001041  RH  019%=      5-min Rain = 0
KBO1 162047Z 23008KT 20/M04 A2997 RMK A01 T02001041  RH  019%=      5-min Rain = 0
KBO1 162048Z 24008KT 20/M04 A2997 RMK A01 T02001042  RH  019%=      5-min Rain = 0
KBO1 162049Z 24008KT 20/M04 A2997 RMK A01 T02001037  RH  020%=      5-min Rain = 0
KBO1 162050Z 24009KT 20/M04 A2997 RMK A01 T02021038  RH  020%=      5-min Rain = 0
KBO1 162051Z 24007KT 20/M04 A2997 RMK A01 T02021043  RH  019%=      5-min Rain = 0
KBO1 162052Z 24008KT 20/M04 A2997 RMK A01 T02021041  RH  019%=      5-min Rain = 0
KBO1 162053Z 24008KT 20/M04 A2997 RMK A01 T02021039  RH  019%=      5-min Rain = 0
KBO1 162054Z 23007KT 20/M04 A2996 RMK A01 T02011040  RH  019%=      5-min Rain = 0
KBO1 162055Z 24008KT 20/M04 A2996 RMK A01 T02011044  RH  019%=      5-min Rain = 0
KBO1 162056Z 24009KT 20/M04 A2996 RMK A01 T02011042  RH  019%=      5-min Rain = 0
KBO1 162057Z 23009KT 20/M04 A2996 RMK A01 T02011038  RH  020%=      5-min Rain = 0
KBO1 162058Z 22008KT 20/M03 A2996 RMK A01 T02021029  RH  021%=      5-min Rain = 0
KBO1 162059Z 20009KT 20/M03 A2996 RMK A01 T02021026  RH  021%=      5-min Rain = 0
KBO1 162100Z 20009KT 20/M03 A2996 RMK A01 T02021027  RH  021%=      5-min Rain = 0
KBO1 162101Z 21008KT 20/M03 A2996 RMK A01 T02011026  RH  021%=      5-min Rain = 0
KBO1 162102Z 22010KT 20/M03 A2996 RMK A01 T02011030  RH  021%=      5-min Rain = 0
KBO1 162103Z 22009KT 20/M03 A2996 RMK A01 T02001032  RH  021%=      5-min Rain = 0
KBO1 162104Z 22009KT 20/M03 A2996 RMK A01 T02001031  RH  021%=      5-min Rain = 0
KBO1 162105Z 22009KT 20/M03 A2996 RMK A01 T02001031  RH  021%=      5-min Rain = 0
KBO1 162106Z 21010KT 20/M03 A2996 RMK A01 T02001030  RH  021%=      5-min Rain = 0
KBO1 162107Z 21012KT 20/M03 A2996 RMK A01 T02011033  RH  020%=      5-min Rain = 0
KBO1 162108Z 22010KT 20/M04 A2996 RMK A01 T02021035  RH  020%=      5-min Rain = 0
KBO1 162109Z 23008KT 20/M04 A2996 RMK A01 T02021036  RH  020%=      5-min Rain = 0
KBO1 162110Z 22009KT 20/M03 A2996 RMK A01 T02021033  RH  020%=      5-min Rain = 0
KBO1 162111Z 22009KT 20/M03 A2996 RMK A01 T02031034  RH  020%=      5-min Rain = 0
KBO1 162112Z 22011G16KT 20/M03 A2996 RMK A01 T02041033  RH  020%=      5-min Rain = 0
KBO1 162113Z 22010KT 21/M03 A2996 RMK A01 T02061031  RH  020%=      5-min Rain = 0
KBO1 162114Z 23008KT 21/M04 A2996 RMK A01 T02061038  RH  019%=      5-min Rain = 0
KBO1 162115Z 24009KT 21/M03 A2996 RMK A01 T02061034  RH  020%=      5-min Rain = 0
KBO1 162116Z 22010KT 21/M04 A2996 RMK A01 T02061036  RH  019%=      5-min Rain = 0
KBO1 162117Z 21010KT 21/M04 A2996 RMK A01 T02051038  RH  019%=      5-min Rain = 0
KBO1 162118Z 22011KT 21/M04 A2996 RMK A01 T02051038  RH  019%=      5-min Rain = 0
KBO1 162119Z 23010KT 21/M04 A2996 RMK A01 T02051037  RH  019%=      5-min Rain = 0
KBO1 162120Z 23009KT 20/M04 A2996 RMK A01 T02041038  RH  019%=      5-min Rain = 0
KBO1 162121Z 22009KT 20/M04 A2996 RMK A01 T02041040  RH  019%=      5-min Rain = 0
KBO1 162122Z 22008KT 20/M04 A2996 RMK A01 T02041038  RH  019%=      5-min Rain = 0
KBO1 162123Z 23008KT 21/M04 A2996 RMK A01 T02061039  RH  019%=      5-min Rain = 0
KBO1 162124Z 23007KT 21/M04 A2996 RMK A01 T02061040  RH  019%=      5-min Rain = 0
KBO1 162125Z 24006KT 21/M04 A2996 RMK A01 T02051042  RH  019%=      5-min Rain = 0
KBO1 162126Z 24005KT 21/M04 A2996 RMK A01 T02051041  RH  019%=      5-min Rain = 0
KBO1 162127Z 24007KT 20/M04 A2996 RMK A01 T02041039  RH  019%=      5-min Rain = 0
KBO1 162128Z 25007KT 21/M03 A2996 RMK A01 T02051033  RH  020%=      5-min Rain = 0
KBO1 162129Z 25007KT 21/M04 A2996 RMK A01 T02061040  RH  019%=      5-min Rain = 0
KBO1 162130Z 23008KT 21/M03 A2996 RMK A01 T02061034  RH  020%=      5-min Rain = 0
KBO1 162131Z 23008KT 21/M04 A2996 RMK A01 T02051039  RH  019%=      5-min Rain = 0
KBO1 162132Z 23007KT 20/M04 A2996 RMK A01 T02041037  RH  019%=      5-min Rain = 0
KBO1 162133Z 23007KT 20/M04 A2996 RMK A01 T02041038  RH  019%=      5-min Rain = 0
KBO1 162134Z 23006KT 20/M04 A2996 RMK A01 T02041038  RH  019%=      5-min Rain = 0
KBO1 162135Z 22008KT 21/M03 A2996 RMK A01 T02051034  RH  020%=      5-min Rain = 0
KBO1 162136Z 21008KT 21/M03 A2996 RMK A01 T02061034  RH  020%=      5-min Rain = 0
KBO1 162137Z 22008KT 21/M04 A2996 RMK A01 T02051035  RH  020%=      5-min Rain = 0
KBO1 162138Z 23008KT 21/M04 A2996 RMK A01 T02061035  RH  020%=      5-min Rain = 0
KBO1 162139Z 22009KT 21/M04 A2996 RMK A01 T02051037  RH  019%=      5-min Rain = 0
KBO1 162140Z 22007KT 20/M04 A2996 RMK A01 T02041036  RH  020%=      5-min Rain = 0
KBO1 162141Z 21007KT 20/M04 A2996 RMK A01 T02031035  RH  020%=      5-min Rain = 0
KBO1 162142Z 22006KT 20/M04 A2996 RMK A01 T02031035  RH  020%=      5-min Rain = 0
KBO1 162143Z 21007KT 20/M03 A2996 RMK A01 T02031033  RH  020%=      5-min Rain = 0
KBO1 162144Z 21008KT 20/M04 A2996 RMK A01 T02031037  RH  020%=      5-min Rain = 0
KBO1 162145Z 22006KT 20/M04 A2996 RMK A01 T02031037  RH  020%=      5-min Rain = 0
KBO1 162146Z 21007KT 20/M04 A2996 RMK A01 T02031035  RH  020%=      5-min Rain = 0
KBO1 162147Z 20006KT 20/M03 A2996 RMK A01 T02041033  RH  020%=      5-min Rain = 0
KBO1 162148Z 21009KT 21/M03 A2996 RMK A01 T02051034  RH  020%=      5-min Rain = 0
KBO1 162149Z 21008KT 20/M04 A2996 RMK A01 T02041036  RH  020%=      5-min Rain = 0
KBO1 162150Z 20009KT 20/M04 A2996 RMK A01 T02021036  RH  020%=      5-min Rain = 0
KBO1 162151Z 20008KT 20/M04 A2996 RMK A01 T02021038  RH  020%=      5-min Rain = 0
KBO1 162152Z 21010KT 20/M04 A2996 RMK A01 T02011038  RH  020%=      5-min Rain = 0
KBO1 162153Z 21010KT 20/M04 A2996 RMK A01 T02011037  RH  020%=      5-min Rain = 0
KBO1 162154Z 21009KT 20/M04 A2996 RMK A01 T02011036  RH  020%=      5-min Rain = 0
KBO1 162155Z 21008KT 20/M03 A2997 RMK A01 T02011034  RH  020%=      5-min Rain = 0
KBO1 162156Z 21010KT 20/M04 A2996 RMK A01 T02021035  RH  020%=      5-min Rain = 0
KBO1 162157Z 20010KT 20/M04 A2996 RMK A01 T02021038  RH  020%=      5-min Rain = 0
KBO1 162158Z 21010KT 20/M04 A2996 RMK A01 T02021039  RH  019%=      5-min Rain = 0
KBO1 162159Z 21010KT 20/M04 A2996 RMK A01 T02011039  RH  020%=      5-min Rain = 0
KBO1 162200Z 21010KT 20/M04 A2996 RMK A01 T01991041  RH  019%=      5-min Rain = 0
KBO1 162201Z 20008KT 20/M04 A2996 RMK A01 T01991040  RH  020%=      5-min Rain = 0
KBO1 162202Z 20009KT 20/M04 A2996 RMK A01 T01991039  RH  020%=      5-min Rain = 0
KBO1 162203Z 21009KT 20/M04 A2996 RMK A01 T01991040  RH  020%=      5-min Rain = 0
KBO1 162204Z 21008KT 20/M04 A2996 RMK A01 T01991039  RH  020%=      5-min Rain = 0
KBO1 162205Z 21009KT 20/M04 A2996 RMK A01 T01991038  RH  020%=      5-min Rain = 0
KBO1 162206Z 20009KT 20/M04 A2997 RMK A01 T02001038  RH  020%=      5-min Rain = 0
KBO1 162207Z 20008KT 20/M04 A2996 RMK A01 T02011038  RH  020%=      5-min Rain = 0
KBO1 162208Z 21007KT 20/M03 A2997 RMK A01 T02021034  RH  020%=      5-min Rain = 0
KBO1 162209Z 21009KT 20/M04 A2997 RMK A01 T02041036  RH  020%=      5-min Rain = 0
KBO1 162210Z 21009KT 20/M04 A2996 RMK A01 T02041038  RH  019%=      5-min Rain = 0
KBO1 162211Z 22008KT 21/M04 A2996 RMK A01 T02051038  RH  019%=      5-min Rain = 0
KBO1 162212Z 22007KT 21/M04 A2996 RMK A01 T02051040  RH  019%=      5-min Rain = 0
KBO1 162213Z 22006KT 21/M04 A2996 RMK A01 T02051040  RH  019%=      5-min Rain = 0
KBO1 162214Z 21007KT 21/M04 A2996 RMK A01 T02061035  RH  020%=      5-min Rain = 0
KBO1 162215Z 22007KT 21/M04 A2996 RMK A01 T02071037  RH  019%=      5-min Rain = 0
KBO1 162216Z 22005KT 21/M03 A2996 RMK A01 T02081034  RH  019%=      5-min Rain = 0
KBO1 162217Z 23007KT 21/M03 A2996 RMK A01 T02081034  RH  019%=      5-min Rain = 0
KBO1 162218Z 22008KT 21/M03 A2997 RMK A01 T02091034  RH  019%=      5-min Rain = 0
KBO1 162219Z 21006KT 21/M04 A2997 RMK A01 T02091039  RH  019%=      5-min Rain = 0
KBO1 162220Z 23008KT 21/M04 A2997 RMK A01 T02081035  RH  019%=      5-min Rain = 0
KBO1 162221Z 24008KT 21/M04 A2997 RMK A01 T02081036  RH  019%=      5-min Rain = 0
KBO1 162222Z 22007KT 21/M04 A2997 RMK A01 T02081037  RH  019%=      5-min Rain = 0
KBO1 162223Z 22007KT 21/M04 A2997 RMK A01 T02071038  RH  019%=      5-min Rain = 0
KBO1 162224Z 23007KT 21/M04 A2997 RMK A01 T02071037  RH  019%=      5-min Rain = 0
KBO1 162225Z 24005KT 21/M04 A2997 RMK A01 T02071035  RH  019%=      5-min Rain = 0
KBO1 162226Z 24006KT 21/M04 A2997 RMK A01 T02081035  RH  019%=      5-min Rain = 0
KBO1 162227Z 24006KT 21/M03 A2997 RMK A01 T02081034  RH  019%=      5-min Rain = 0
KBO1 162228Z 24006KT 21/M04 A2997 RMK A01 T02081039  RH  019%=      5-min Rain = 0
KBO1 162229Z 24007KT 21/M03 A2997 RMK A01 T02071032  RH  020%=      5-min Rain = 0
KBO1 162230Z 24007KT 21/M03 A2997 RMK A01 T02081032  RH  020%=      5-min Rain = 0
KBO1 162231Z 24007KT 21/M03 A2996 RMK A01 T02071034  RH  019%=      5-min Rain = 0
KBO1 162232Z 24006KT 21/M03 A2996 RMK A01 T02071034  RH  019%=      5-min Rain = 0
KBO1 162233Z 24006KT 21/M03 A2996 RMK A01 T02071033  RH  020%=      5-min Rain = 0
KBO1 162234Z 23007KT 21/M03 A2996 RMK A01 T02081030  RH  020%=      5-min Rain = 0
KBO1 162235Z 23006KT 21/M04 A2996 RMK A01 T02081035  RH  019%=      5-min Rain = 0
KBO1 162236Z 23006KT 21/M04 A2996 RMK A01 T02081035  RH  019%=      5-min Rain = 0
KBO1 162237Z 23006KT 21/M03 A2996 RMK A01 T02081033  RH  020%=      5-min Rain = 0
KBO1 162238Z 22007KT 21/M03 A2996 RMK A01 T02081034  RH  019%=      5-min Rain = 0
KBO1 162239Z 22006KT 21/M04 A2996 RMK A01 T02071036  RH  019%=      5-min Rain = 0
KBO1 162240Z 22007KT 21/M04 A2996 RMK A01 T02071035  RH  019%=      5-min Rain = 0
KBO1 162241Z 22007KT 21/M04 A2996 RMK A01 T02071037  RH  019%=      5-min Rain = 0
KBO1 162242Z 22006KT 21/M04 A2996 RMK A01 T02071038  RH  019%=      5-min Rain = 0
KBO1 162243Z 22007KT 21/M03 A2996 RMK A01 T02071034  RH  020%=      5-min Rain = 0
KBO1 162244Z 22006KT 21/M04 A2996 RMK A01 T02061037  RH  019%=      5-min Rain = 0
KBO1 162245Z 22007KT 21/M04 A2996 RMK A01 T02061035  RH  019%=      5-min Rain = 0
KBO1 162246Z 22005KT 21/M04 A2996 RMK A01 T02061035  RH  019%=      5-min Rain = 0
KBO1 162247Z 21005KT 21/M04 A2996 RMK A01 T02051035  RH  020%=      5-min Rain = 0
KBO1 162248Z 21006KT 21/M03 A2996 RMK A01 T02061034  RH  020%=      5-min Rain = 0
KBO1 162249Z 21008KT 21/M04 A2996 RMK A01 T02051037  RH  019%=      5-min Rain = 0
KBO1 162250Z 21007KT 21/M04 A2996 RMK A01 T02051036  RH  019%=      5-min Rain = 0
KBO1 162251Z 20007KT 20/M04 A2996 RMK A01 T02041035  RH  020%=      5-min Rain = 0
KBO1 162252Z 20007KT 20/M04 A2996 RMK A01 T02031035  RH  020%=      5-min Rain = 0
KBO1 162253Z 20007KT 20/M04 A2996 RMK A01 T02011036  RH  020%=      5-min Rain = 0
KBO1 162254Z 20006KT 20/M04 A2996 RMK A01 T01991035  RH  020%=      5-min Rain = 0
KBO1 162255Z 20006KT 20/M04 A2996 RMK A01 T01951035  RH  021%=      5-min Rain = 0
KBO1 162256Z 20006KT 19/M04 A2996 RMK A01 T01931035  RH  021%=      5-min Rain = 0
KBO1 162257Z 20006KT 19/M04 A2996 RMK A01 T01901036  RH  021%=      5-min Rain = 0
KBO1 162258Z 21006KT 19/M04 A2996 RMK A01 T01881035  RH  022%=      5-min Rain = 0
KBO1 162259Z 21007KT 19/M04 A2996 RMK A01 T01851035  RH  022%=      5-min Rain = 0
KBO1 162300Z 21007KT 18/M04 A2996 RMK A01 T01821035  RH  023%=      5-min Rain = 0
KBO1 162301Z 20008KT 18/M04 A2996 RMK A01 T01791035  RH  023%=      5-min Rain = 0
KBO1 162302Z 20008KT 18/M04 A2996 RMK A01 T01761035  RH  024%=      5-min Rain = 0
KBO1 162303Z 20008KT 17/M04 A2996 RMK A01 T01731035  RH  024%=      5-min Rain = 0
KBO1 162304Z 20008KT 17/M04 A2996 RMK A01 T01701035  RH  024%=      5-min Rain = 0
KBO1 162305Z 20007KT 17/M04 A2996 RMK A01 T01691035  RH  025%=      5-min Rain = 0
KBO1 162306Z 20007KT 17/M04 A2996 RMK A01 T01671035  RH  025%=      5-min Rain = 0
KBO1 162307Z 20007KT 17/M04 A2996 RMK A01 T01651035  RH  025%=      5-min Rain = 0
KBO1 162308Z 20008KT 16/M04 A2996 RMK A01 T01631035  RH  025%=      5-min Rain = 0
KBO1 162309Z 20008KT 16/M04 A2996 RMK A01 T01611035  RH  026%=      5-min Rain = 0
KBO1 162310Z 20008KT 16/M04 A2996 RMK A01 T01581035  RH  026%=      5-min Rain = 0
KBO1 162311Z 20008KT 16/M04 A2996 RMK A01 T01571036  RH  026%=      5-min Rain = 0
KBO1 162312Z 20008KT 16/M04 A2996 RMK A01 T01551036  RH  027%=      5-min Rain = 0
KBO1 162313Z 20009KT 15/M04 A2996 RMK A01 T01531036  RH  027%=      5-min Rain = 0
KBO1 162314Z 20009KT 15/M04 A2996 RMK A01 T01511036  RH  027%=      5-min Rain = 0
KBO1 162315Z 20009KT 15/M04 A2996 RMK A01 T01501035  RH  028%=      5-min Rain = 0
KBO1 162316Z 19009KT 15/M04 A2996 RMK A01 T01491035  RH  028%=      5-min Rain = 0
KBO1 162317Z 19009KT 15/M03 A2996 RMK A01 T01481034  RH  028%=      5-min Rain = 0
KBO1 162318Z 19009KT 15/M03 A2996 RMK A01 T01481034  RH  028%=      5-min Rain = 0
KBO1 162319Z 19009KT 15/M03 A2996 RMK A01 T01461034  RH  029%=      5-min Rain = 0
KBO1 162320Z 19009KT 14/M03 A2996 RMK A01 T01441034  RH  029%=      5-min Rain = 0
KBO1 162321Z 19009KT 14/M03 A2996 RMK A01 T01421033  RH  030%=      5-min Rain = 0
KBO1 162322Z 19009KT 14/M03 A2996 RMK A01 T01401033  RH  030%=      5-min Rain = 0
KBO1 162323Z 19009KT 14/M03 A2996 RMK A01 T01381033  RH  030%=      5-min Rain = 0
KBO1 162324Z 19008KT 14/M03 A2996 RMK A01 T01361033  RH  031%=      5-min Rain = 0
KBO1 162325Z 19008KT 14/M03 A2996 RMK A01 T01351032  RH  031%=      5-min Rain = 0
KBO1 162326Z 19008KT 13/M03 A2996 RMK A01 T01341031  RH  032%=      5-min Rain = 0
KBO1 162327Z 19008KT 13/M03 A2996 RMK A01 T01321031  RH  032%=      5-min Rain = 0
KBO1 162328Z 19008KT 13/M03 A2996 RMK A01 T01311031  RH  032%=      5-min Rain = 0
KBO1 162329Z 19008KT 13/M03 A2996 RMK A01 T01291031  RH  033%=      5-min Rain = 0
KBO1 162330Z 19008KT 13/M03 A2996 RMK A01 T01281030  RH  033%=      5-min Rain = 0
KBO1 162331Z 19008KT 13/M03 A2996 RMK A01 T01271030  RH  033%=      5-min Rain = 0
KBO1 162332Z 19008KT 13/M03 A2996 RMK A01 T01261029  RH  034%=      5-min Rain = 0
KBO1 162333Z 19008KT 13/M03 A2996 RMK A01 T01251029  RH  034%=      5-min Rain = 0
KBO1 162334Z 19008KT 12/M03 A2996 RMK A01 T01241028  RH  034%=      5-min Rain = 0
KBO1 162335Z 20008KT 12/M03 A2996 RMK A01 T01241028  RH  035%=      5-min Rain = 0
KBO1 162336Z 20008KT 12/M03 A2996 RMK A01 T01231028  RH  035%=      5-min Rain = 0
KBO1 162337Z 20008KT 12/M03 A2996 RMK A01 T01231027  RH  035%=      5-min Rain = 0
KBO1 162338Z 19008KT 12/M03 A2996 RMK A01 T01231027  RH  035%=      5-min Rain = 0
KBO1 162339Z 19008KT 12/M03 A2996 RMK A01 T01221027  RH  035%=      5-min Rain = 0
KBO1 162340Z 19009KT 12/M03 A2996 RMK A01 T01221026  RH  035%=      5-min Rain = 0
KBO1 162341Z 19009KT 12/M03 A2996 RMK A01 T01211026  RH  036%=      5-min Rain = 0
KBO1 162342Z 19010KT 12/M03 A2996 RMK A01 T01201026  RH  036%=      5-min Rain = 0
KBO1 162343Z 19009KT 12/M03 A2996 RMK A01 T01191026  RH  036%=      5-min Rain = 0
KBO1 162344Z 19009KT 12/M03 A2996 RMK A01 T01181026  RH  037%=      5-min Rain = 0
KBO1 162345Z 19010KT 12/M03 A2996 RMK A01 T01161025  RH  037%=      5-min Rain = 0
KBO1 162346Z 20010KT 12/M03 A2996 RMK A01 T01151025  RH  038%=      5-min Rain = 0
KBO1 162347Z 20010KT 11/M03 A2996 RMK A01 T01131025  RH  038%=      5-min Rain = 0
KBO1 162348Z 20010KT 11/M03 A2996 RMK A01 T01121025  RH  038%=      5-min Rain = 0
KBO1 162349Z 20009KT 11/M02 A2996 RMK A01 T01111024  RH  039%=      5-min Rain = 0
KBO1 162350Z 20009KT 11/M02 A2996 RMK A01 T01101024  RH  039%=      5-min Rain = 0
KBO1 162351Z 19008KT 11/M02 A2996 RMK A01 T01091024  RH  039%=      5-min Rain = 0
KBO1 162352Z 19009KT 11/M03 A2996 RMK A01 T01071025  RH  039%=      5-min Rain = 0
KBO1 162353Z 19008KT 11/M03 A2997 RMK A01 T01061025  RH  040%=      5-min Rain = 0
KBO1 162354Z 19008KT 11/M03 A2997 RMK A01 T01061025  RH  040%=      5-min Rain = 0
KBO1 162355Z 20008KT 11/M03 A2997 RMK A01 T01051025  RH  040%=      5-min Rain = 0
KBO1 162356Z 20009KT 10/M03 A2997 RMK A01 T01041025  RH  040%=      5-min Rain = 0
KBO1 162357Z 20008KT 10/M03 A2997 RMK A01 T01041026  RH  040%=      5-min Rain = 0
KBO1 162358Z 20008KT 11/M03 A2997 RMK A01 T01051026  RH  040%=      5-min Rain = 0
KBO1 162359Z 20008KT 11/M03 A2997 RMK A01 T01051026  RH  040%=      5-min Rain = 0
KBO1 170000Z 20008KT 11/M03 A2997 RMK A01 T01051027  RH  040%=      5-min Rain = 0
KBO1 170001Z 20008KT 11/M03 A2997 RMK A01 T01061026  RH  040%=      5-min Rain = 0
KBO1 170002Z 20008KT 11/M03 A2997 RMK A01 T01071026  RH  039%=      5-min Rain = 0
KBO1 170003Z 20008KT 11/M03 A2997 RMK A01 T01071026  RH  039%=      5-min Rain = 0
KBO1 170004Z 20008KT 11/M03 A2997 RMK A01 T01081026  RH  039%=      5-min Rain = 0
KBO1 170005Z 20008KT 11/M03 A2997 RMK A01 T01091026  RH  039%=      5-min Rain = 0
KBO1 170006Z 20008KT 11/M03 A2997 RMK A01 T01081026  RH  039%=      5-min Rain = 0
KBO1 170007Z 20008KT 11/M03 A2997 RMK A01 T01081025  RH  039%=      5-min Rain = 0
KBO1 170008Z 20008KT 11/M03 A2997 RMK A01 T01071026  RH  039%=      5-min Rain = 0
KBO1 170009Z 21008KT 11/M03 A2997 RMK A01 T01051026  RH  040%=      5-min Rain = 0
KBO1 170010Z 21008KT 11/M03 A2997 RMK A01 T01051025  RH  040%=      5-min Rain = 0
KBO1 170011Z 21009KT 10/M03 A2997 RMK A01 T01041025  RH  040%=      5-min Rain = 0
KBO1 170012Z 21009KT 10/M03 A2997 RMK A01 T01041025  RH  041%=      5-min Rain = 0
KBO1 170013Z 21009KT 10/M02 A2997 RMK A01 T01041024  RH  041%=      5-min Rain = 0
KBO1 170014Z 21009KT 11/M02 A2997 RMK A01 T01051023  RH  041%=      5-min Rain = 0
KBO1 170015Z 21009KT 11/M02 A2997 RMK A01 T01061023  RH  040%=      5-min Rain = 0
KBO1 170016Z 21009KT 11/M02 A2997 RMK A01 T01071023  RH  040%=      5-min Rain = 0
KBO1 170017Z 21009KT 11/M02 A2997 RMK A01 T01061023  RH  040%=      5-min Rain = 0
KBO1 170018Z 21009KT 11/M02 A2997 RMK A01 T01051024  RH  040%=      5-min Rain = 0
KBO1 170019Z 21009KT 10/M02 A2997 RMK A01 T01041024  RH  041%=      5-min Rain = 0
KBO1 170020Z 21009KT 10/M03 A2997 RMK A01 T01021025  RH  041%=      5-min Rain = 0
KBO1 170021Z 21009KT 10/M03 A2997 RMK A01 T01011025  RH  041%=      5-min Rain = 0
KBO1 170022Z 21009KT 10/M03 A2998 RMK A01 T01001025  RH  041%=      5-min Rain = 0
KBO1 170023Z 21009KT 10/M03 A2998 RMK A01 T00991025  RH  042%=      5-min Rain = 0
KBO1 170024Z 21009KT 10/M03 A2998 RMK A01 T00991025  RH  042%=      5-min Rain = 0
KBO1 170025Z 21009KT 10/M03 A2998 RMK A01 T00981025  RH  042%=      5-min Rain = 0
KBO1 170026Z 22008KT 10/M02 A2998 RMK A01 T00981024  RH  042%=      5-min Rain = 0
KBO1 170027Z 22008KT 10/M02 A2998 RMK A01 T00971024  RH  042%=      5-min Rain = 0
KBO1 170028Z 22008KT 10/M02 A2998 RMK A01 T00971024  RH  043%=      5-min Rain = 0
KBO1 170029Z 22008KT 10/M02 A2998 RMK A01 T00961024  RH  043%=      5-min Rain = 0
KBO1 170030Z 22008KT 10/M02 A2998 RMK A01 T00961024  RH  043%=      5-min Rain = 0
KBO1 170031Z 22008KT 10/M03 A2998 RMK A01 T00951025  RH  043%=      5-min Rain = 0
KBO1 170032Z 22007KT 10/M03 A2998 RMK A01 T00951026  RH  043%=      5-min Rain = 0
KBO1 170033Z 22007KT 10/M03 A2998 RMK A01 T00951026  RH  043%=      5-min Rain = 0
KBO1 170034Z 22007KT 10/M03 A2998 RMK A01 T00951026  RH  042%=      5-min Rain = 0
KBO1 170035Z 22007KT 09/M03 A2998 RMK A01 T00941027  RH  042%=      5-min Rain = 0
KBO1 170036Z 22008KT 09/M03 A2998 RMK A01 T00931027  RH  043%=      5-min Rain = 0
KBO1 170037Z 22008KT 09/M03 A2998 RMK A01 T00911027  RH  043%=      5-min Rain = 0
KBO1 170038Z 22008KT 09/M03 A2998 RMK A01 T00901028  RH  043%=      5-min Rain = 0
KBO1 170039Z 22008KT 09/M03 A2998 RMK A01 T00901028  RH  043%=      5-min Rain = 0
KBO1 170040Z 22007KT 09/M03 A2998 RMK A01 T00891029  RH  043%=      5-min Rain = 0
KBO1 170041Z 22007KT 09/M03 A2998 RMK A01 T00871030  RH  044%=      5-min Rain = 0
KBO1 170042Z 22007KT 09/M03 A2998 RMK A01 T00861030  RH  044%=      5-min Rain = 0
KBO1 170043Z 22007KT 09/M03 A2998 RMK A01 T00861030  RH  044%=      5-min Rain = 0
KBO1 170044Z 22007KT 09/M03 A2998 RMK A01 T00861030  RH  044%=      5-min Rain = 0
KBO1 170045Z 22008KT 09/M03 A2998 RMK A01 T00861030  RH  044%=      5-min Rain = 0
KBO1 170046Z 22007KT 09/M03 A2998 RMK A01 T00851030  RH  044%=      5-min Rain = 0
KBO1 170047Z 22007KT 09/M03 A2998 RMK A01 T00851030  RH  044%=      5-min Rain = 0
KBO1 170048Z 22007KT 09/M03 A2998 RMK A01 T00851030  RH  044%=      5-min Rain = 0
KBO1 170049Z 22007KT 09/M03 A2998 RMK A01 T00851029  RH  045%=      5-min Rain = 0
KBO1 170050Z 22007KT 08/M03 A2998 RMK A01 T00841029  RH  045%=      5-min Rain = 0
KBO1 170051Z 22007KT 09/M03 A2998 RMK A01 T00851029  RH  045%=      5-min Rain = 0
KBO1 170052Z 22007KT 09/M03 A2998 RMK A01 T00851029  RH  044%=      5-min Rain = 0
KBO1 170053Z 22007KT 09/M03 A2998 RMK A01 T00851029  RH  044%=      5-min Rain = 0
KBO1 170054Z 22007KT 09/M03 A2998 RMK A01 T00851029  RH  044%=      5-min Rain = 0
KBO1 170055Z 22007KT 09/M03 A2998 RMK A01 T00851029  RH  044%=      5-min Rain = 0
KBO1 170056Z 22007KT 09/M03 A2998 RMK A01 T00851029  RH  044%=      5-min Rain = 0
KBO1 170057Z 22007KT 09/M03 A2998 RMK A01 T00861029  RH  044%=      5-min Rain = 0
KBO1 170058Z 22007KT 09/M03 A2998 RMK A01 T00871029  RH  044%=      5-min Rain = 0
KBO1 170059Z 22007KT 09/M03 A2998 RMK A01 T00871029  RH  044%=      5-min Rain = 0
KBO1 170100Z 22007KT 09/M03 A2998 RMK A01 T00861029  RH  044%=      5-min Rain = 0
KBO1 170101Z 22006KT 09/M03 A2998 RMK A01 T00861028  RH  044%=      5-min Rain = 0
KBO1 170102Z 22007KT 09/M03 A2998 RMK A01 T00861028  RH  044%=      5-min Rain = 0
KBO1 170103Z 22007KT 09/M03 A2998 RMK A01 T00861028  RH  044%=      5-min Rain = 0
KBO1 170104Z 23006KT 09/M03 A2998 RMK A01 T00861028  RH  044%=      5-min Rain = 0
KBO1 170105Z 23006KT 09/M03 A2998 RMK A01 T00861028  RH  045%=      5-min Rain = 0
KBO1 170106Z 23006KT 09/M03 A2998 RMK A01 T00851028  RH  045%=      5-min Rain = 0
KBO1 170107Z 23006KT 09/M03 A2998 RMK A01 T00861028  RH  045%=      5-min Rain = 0
KBO1 170108Z 22006KT 09/M03 A2998 RMK A01 T00861029  RH  044%=      5-min Rain = 0
KBO1 170109Z 22006KT 09/M03 A2998 RMK A01 T00871029  RH  044%=      5-min Rain = 0
KBO1 170110Z 22007KT 09/M03 A2998 RMK A01 T00871029  RH  044%=      5-min Rain = 0
KBO1 170111Z 22006KT 09/M03 A2998 RMK A01 T00871030  RH  044%=      5-min Rain = 0
KBO1 170112Z 22006KT 09/M03 A2998 RMK A01 T00861030  RH  044%=      5-min Rain = 0
KBO1 170113Z 22006KT 09/M03 A2998 RMK A01 T00861030  RH  044%=      5-min Rain = 0
KBO1 170114Z 22006KT 09/M03 A2998 RMK A01 T00851031  RH  044%=      5-min Rain = 0
KBO1 170115Z 22007KT 09/M03 A2998 RMK A01 T00851031  RH  044%=      5-min Rain = 0
KBO1 170116Z 22007KT 08/M03 A2998 RMK A01 T00841031  RH  044%=      5-min Rain = 0
KBO1 170117Z 22007KT 08/M03 A2998 RMK A01 T00831031  RH  045%=      5-min Rain = 0
KBO1 170118Z 22007KT 08/M03 A2998 RMK A01 T00821031  RH  045%=      5-min Rain = 0
KBO1 170119Z 22007KT 08/M03 A2998 RMK A01 T00831031  RH  045%=      5-min Rain = 0
KBO1 170120Z 22007KT 08/M03 A2998 RMK A01 T00821032  RH  045%=      5-min Rain = 0
KBO1 170121Z 22006KT 08/M03 A2998 RMK A01 T00821031  RH  045%=      5-min Rain = 0
KBO1 170122Z 22006KT 08/M03 A2998 RMK A01 T00831031  RH  044%=      5-min Rain = 0
KBO1 170123Z 22007KT 08/M03 A2998 RMK A01 T00831031  RH  044%=      5-min Rain = 0
KBO1 170124Z 22007KT 08/M03 A2998 RMK A01 T00841031  RH  044%=      5-min Rain = 0
KBO1 170125Z 22007KT 08/M03 A2998 RMK A01 T00841031  RH  044%=      5-min Rain = 0
KBO1 170126Z 22007KT 08/M03 A2998 RMK A01 T00841031  RH  044%=      5-min Rain = 0
KBO1 170127Z 22007KT 08/M03 A2998 RMK A01 T00841030  RH  045%=      5-min Rain = 0
KBO1 170128Z 21007KT 08/M03 A2998 RMK A01 T00831030  RH  045%=      5-min Rain = 0
KBO1 170129Z 21007KT 08/M03 A2998 RMK A01 T00831029  RH  045%=      5-min Rain = 0
KBO1 170130Z 21007KT 08/M03 A2998 RMK A01 T00811030  RH  045%=      5-min Rain = 0
KBO1 170131Z 21008KT 08/M03 A2998 RMK A01 T00791030  RH  046%=      5-min Rain = 0
KBO1 170132Z 22007KT 08/M03 A2998 RMK A01 T00791030  RH  046%=      5-min Rain = 0
KBO1 170133Z 22007KT 08/M03 A2998 RMK A01 T00781030  RH  046%=      5-min Rain = 0
KBO1 170134Z 22007KT 08/M03 A2998 RMK A01 T00781029  RH  047%=      5-min Rain = 0
KBO1 170135Z 21007KT 08/M03 A2998 RMK A01 T00771029  RH  047%=      5-min Rain = 0
KBO1 170136Z 22007KT 08/M03 A2998 RMK A01 T00761029  RH  047%=      5-min Rain = 0
KBO1 170137Z 22007KT 08/M03 A2998 RMK A01 T00751029  RH  047%=      5-min Rain = 0
KBO1 170138Z 22007KT 08/M03 A2998 RMK A01 T00751029  RH  048%=      5-min Rain = 0
KBO1 170139Z 22007KT 08/M03 A2998 RMK A01 T00751029  RH  047%=      5-min Rain = 0
KBO1 170140Z 22007KT 08/M03 A2998 RMK A01 T00771029  RH  047%=      5-min Rain = 0
KBO1 170141Z 22007KT 08/M03 A2998 RMK A01 T00791028  RH  047%=      5-min Rain = 0
KBO1 170142Z 22007KT 08/M03 A2998 RMK A01 T00801028  RH  046%=      5-min Rain = 0
KBO1 170143Z 22008KT 08/M03 A2998 RMK A01 T00811029  RH  046%=      5-min Rain = 0
KBO1 170144Z 22007KT 08/M03 A2998 RMK A01 T00811029  RH  046%=      5-min Rain = 0
KBO1 170145Z 22008KT 08/M03 A2998 RMK A01 T00811028  RH  046%=      5-min Rain = 0
KBO1 170146Z 22008KT 08/M03 A2998 RMK A01 T00811028  RH  046%=      5-min Rain = 0
KBO1 170147Z 23008KT 08/M03 A2998 RMK A01 T00821028  RH  046%=      5-min Rain = 0
KBO1 170148Z 23008KT 08/M03 A2998 RMK A01 T00821028  RH  046%=      5-min Rain = 0
KBO1 170149Z 23009KT 08/M03 A2998 RMK A01 T00831028  RH  046%=      5-min Rain = 0
KBO1 170150Z 23010KT 08/M03 A2998 RMK A01 T00821028  RH  046%=      5-min Rain = 0
KBO1 170151Z 23012KT 08/M03 A2999 RMK A01 T00831027  RH  046%=      5-min Rain = 0
KBO1 170152Z 23010KT 09/M03 A2999 RMK A01 T00851027  RH  045%=      5-min Rain = 0
KBO1 170153Z 24011KT 09/M03 A2999 RMK A01 T00871027  RH  044%=      5-min Rain = 0
KBO1 170154Z 23012KT 09/M03 A2999 RMK A01 T00891027  RH  044%=      5-min Rain = 0
KBO1 170155Z 23011KT 09/M03 A2999 RMK A01 T00891027  RH  044%=      5-min Rain = 0
KBO1 170156Z 23011KT 09/M03 A2999 RMK A01 T00881026  RH  045%=      5-min Rain = 0
KBO1 170157Z 23011KT 09/M03 A2999 RMK A01 T00861027  RH  045%=      5-min Rain = 0
KBO1 170158Z 23011KT 09/M03 A2999 RMK A01 T00851026  RH  045%=      5-min Rain = 0
KBO1 170159Z 23010KT 09/M03 A2999 RMK A01 T00851026  RH  045%=      5-min Rain = 0
KBO1 170200Z 23010KT 09/M03 A2999 RMK A01 T00851026  RH  045%=      5-min Rain = 0
KBO1 170201Z 23010KT 09/M03 A2999 RMK A01 T00851026  RH  046%=      5-min Rain = 0
KBO1 170202Z 24010KT 09/M03 A2998 RMK A01 T00851026  RH  046%=      5-min Rain = 0
KBO1 170203Z 24010KT 08/M03 A2998 RMK A01 T00841025  RH  046%=      5-min Rain = 0
KBO1 170204Z 24011KT 08/M03 A2998 RMK A01 T00841025  RH  046%=      5-min Rain = 0
KBO1 170205Z 24011KT 08/M03 A2998 RMK A01 T00831025  RH  047%=      5-min Rain = 0
KBO1 170206Z 24011KT 08/M03 A2998 RMK A01 T00831025  RH  047%=      5-min Rain = 0
KBO1 170207Z 24011KT 08/M02 A2998 RMK A01 T00841024  RH  046%=      5-min Rain = 0
KBO1 170208Z 24011KT 09/M02 A2999 RMK A01 T00851024  RH  046%=      5-min Rain = 0
KBO1 170209Z 24010KT 09/M02 A2999 RMK A01 T00861024  RH  046%=      5-min Rain = 0
KBO1 170210Z 24010KT 09/M02 A2999 RMK A01 T00861024  RH  046%=      5-min Rain = 0
KBO1 170211Z 24010KT 09/M02 A2999 RMK A01 T00871024  RH  046%=      5-min Rain = 0
KBO1 170212Z 24010KT 09/M02 A2999 RMK A01 T00871023  RH  046%=      5-min Rain = 0
KBO1 170213Z 24010KT 09/M02 A2999 RMK A01 T00881024  RH  046%=      5-min Rain = 0
KBO1 170214Z 24010KT 09/M02 A2999 RMK A01 T00881023  RH  046%=      5-min Rain = 0
KBO1 170215Z 24010KT 09/M02 A2999 RMK A01 T00871023  RH  046%=      5-min Rain = 0
KBO1 170216Z 24010KT 09/M02 A2999 RMK A01 T00871023  RH  046%=      5-min Rain = 0
KBO1 170217Z 24010KT 09/M02 A2998 RMK A01 T00861023  RH  046%=      5-min Rain = 0
KBO1 170218Z 24010KT 09/M02 A2998 RMK A01 T00851023  RH  046%=      5-min Rain = 0
KBO1 170219Z 24010KT 09/M02 A2998 RMK A01 T00851023  RH  046%=      5-min Rain = 0
KBO1 170220Z 24011KT 09/M02 A2998 RMK A01 T00851023  RH  046%=      5-min Rain = 0
KBO1 170221Z 24011KT 09/M02 A2998 RMK A01 T00851023  RH  047%=      5-min Rain = 0
KBO1 170222Z 24011KT 09/M02 A2998 RMK A01 T00851023  RH  047%=      5-min Rain = 0
KBO1 170223Z 23010KT 09/M02 A2998 RMK A01 T00851022  RH  047%=      5-min Rain = 0
KBO1 170224Z 23011KT 09/M02 A2998 RMK A01 T00861022  RH  047%=      5-min Rain = 0
KBO1 170225Z 23010KT 09/M02 A2998 RMK A01 T00851022  RH  047%=      5-min Rain = 0
KBO1 170226Z 23010KT 09/M02 A2998 RMK A01 T00851022  RH  047%=      5-min Rain = 0
KBO1 170227Z 23010KT 08/M02 A2998 RMK A01 T00841022  RH  047%=      5-min Rain = 0
KBO1 170228Z 23010KT 08/M02 A2999 RMK A01 T00821022  RH  048%=      5-min Rain = 0
KBO1 170229Z 23010KT 08/M02 A2999 RMK A01 T00801022  RH  048%=      5-min Rain = 0
KBO1 170230Z 23010KT 08/M02 A2999 RMK A01 T00781023  RH  049%=      5-min Rain = 0
KBO1 170231Z 23010KT 08/M02 A2999 RMK A01 T00781022  RH  049%=      5-min Rain = 0
KBO1 170232Z 23010KT 08/M02 A2999 RMK A01 T00771023  RH  049%=      5-min Rain = 0
KBO1 170233Z 23010KT 08/M02 A2999 RMK A01 T00771023  RH  049%=      5-min Rain = 0
KBO1 170234Z 24010KT 08/M02 A2999 RMK A01 T00781022  RH  049%=      5-min Rain = 0
KBO1 170235Z 24010KT 08/M02 A2999 RMK A01 T00781023  RH  049%=      5-min Rain = 0
KBO1 170236Z 24009KT 08/M02 A2999 RMK A01 T00781022  RH  049%=      5-min Rain = 0
KBO1 170237Z 24009KT 08/M02 A2999 RMK A01 T00771022  RH  049%=      5-min Rain = 0
KBO1 170238Z 24009KT 08/M02 A2999 RMK A01 T00771022  RH  050%=      5-min Rain = 0
KBO1 170239Z 24009KT 08/M02 A2999 RMK A01 T00761022  RH  050%=      5-min Rain = 0
KBO1 170240Z 24009KT 08/M02 A2999 RMK A01 T00751022  RH  050%=      5-min Rain = 0
KBO1 170241Z 25009KT 07/M02 A2999 RMK A01 T00741022  RH  050%=      5-min Rain = 0
KBO1 170242Z 24008KT 07/M02 A2999 RMK A01 T00741022  RH  051%=      5-min Rain = 0
KBO1 170243Z 25008KT 07/M02 A2999 RMK A01 T00731022  RH  051%=      5-min Rain = 0
KBO1 170244Z 25008KT 07/M02 A2999 RMK A01 T00731021  RH  051%=      5-min Rain = 0
KBO1 170245Z 25008KT 07/M02 A2999 RMK A01 T00731021  RH  051%=      5-min Rain = 0
KBO1 170246Z 25008KT 07/M02 A2999 RMK A01 T00741021  RH  051%=      5-min Rain = 0
KBO1 170247Z 25008KT 08/M02 A2999 RMK A01 T00751021  RH  051%=      5-min Rain = 0
KBO1 170248Z 26007KT 08/M02 A2999 RMK A01 T00761021  RH  051%=      5-min Rain = 0
KBO1 170249Z 26007KT 08/M02 A2999 RMK A01 T00771020  RH  050%=      5-min Rain = 0
KBO1 170250Z 26007KT 08/M02 A2999 RMK A01 T00791020  RH  050%=      5-min Rain = 0
KBO1 170251Z 26007KT 08/M02 A2999 RMK A01 T00801020  RH  049%=      5-min Rain = 0
KBO1 170252Z 26007KT 08/M02 A2999 RMK A01 T00811020  RH  049%=      5-min Rain = 0
KBO1 170253Z 26008KT 08/M02 A2999 RMK A01 T00821020  RH  049%=      5-min Rain = 0
KBO1 170254Z 26008KT 08/M02 A2999 RMK A01 T00831019  RH  049%=      5-min Rain = 0
KBO1 170255Z 26008KT 08/M02 A2999 RMK A01 T00821020  RH  049%=      5-min Rain = 0
KBO1 170256Z 26008KT 08/M02 A30 RMK A01 T00831020  RH  048%=      5-min Rain = 0
KBO1 170257Z 27007KT 08/M02 A30 RMK A01 T00831020  RH  048%=      5-min Rain = 0
KBO1 170258Z 27007KT 08/M02 A30 RMK A01 T00821020  RH  048%=      5-min Rain = 0
KBO1 170259Z 26008KT 08/M02 A30 RMK A01 T00831020  RH  049%=      5-min Rain = 0
KBO1 170300Z 26008KT 08/M02 A30 RMK A01 T00821020  RH  049%=      5-min Rain = 0
KBO1 170301Z 26008KT 08/M02 A30 RMK A01 T00821020  RH  049%=      5-min Rain = 0
KBO1 170302Z 26008KT 08/M02 A30 RMK A01 T00821020  RH  049%=      5-min Rain = 0
KBO1 170303Z 26008KT 08/M02 A30 RMK A01 T00821020  RH  049%=      5-min Rain = 0
KBO1 170304Z 26009KT 08/M02 A30 RMK A01 T00821020  RH  049%=      5-min Rain = 0
KBO1 170305Z 26009KT 08/M02 A30 RMK A01 T00821019  RH  049%=      5-min Rain = 0
KBO1 170306Z 26010KT 08/M02 A30 RMK A01 T00831019  RH  048%=      5-min Rain = 0
KBO1 170307Z 25010KT 08/M02 A30 RMK A01 T00841019  RH  048%=      5-min Rain = 0
KBO1 170308Z 25010KT 08/M02 A30 RMK A01 T00841019  RH  048%=      5-min Rain = 0
KBO1 170309Z 25010KT 08/M02 A30 RMK A01 T00841018  RH  048%=      5-min Rain = 0
KBO1 170310Z 25010KT 09/M02 A30 RMK A01 T00851018  RH  048%=      5-min Rain = 0
KBO1 170311Z 25010KT 09/M02 A30 RMK A01 T00851018  RH  048%=      5-min Rain = 0
KBO1 170312Z 26010KT 09/M02 A30 RMK A01 T00851017  RH  048%=      5-min Rain = 0
KBO1 170313Z 26010KT 08/M02 A30 RMK A01 T00841017  RH  049%=      5-min Rain = 0
KBO1 170314Z 26010KT 08/M02 A30 RMK A01 T00841017  RH  049%=      5-min Rain = 0
KBO1 170315Z 26010KT 09/M02 A30 RMK A01 T00851017  RH  049%=      5-min Rain = 0
KBO1 170316Z 26010KT 09/M02 A30 RMK A01 T00861016  RH  049%=      5-min Rain = 0
KBO1 170317Z 26009KT 09/M02 A30 RMK A01 T00861016  RH  049%=      5-min Rain = 0
KBO1 170318Z 26009KT 09/M02 A30 RMK A01 T00871016  RH  049%=      5-min Rain = 0
KBO1 170319Z 26009KT 09/M02 A30 RMK A01 T00871016  RH  048%=      5-min Rain = 0
KBO1 170320Z 26009KT 09/M02 A30 RMK A01 T00881016  RH  048%=      5-min Rain = 0
KBO1 170321Z 26011KT 09/M02 A30 RMK A01 T00901015  RH  048%=      5-min Rain = 0
KBO1 170322Z 26009KT 09/M02 A30 RMK A01 T00901015  RH  048%=      5-min Rain = 0
KBO1 170323Z 26009KT 09/M02 A30 RMK A01 T00911015  RH  047%=      5-min Rain = 0
KBO1 170324Z 26009KT 09/M02 A30 RMK A01 T00921015  RH  047%=      5-min Rain = 0
KBO1 170325Z 26010KT 09/M02 A2999 RMK A01 T00911015  RH  047%=      5-min Rain = 0
KBO1 170326Z 26010KT 09/M02 A2999 RMK A01 T00911015  RH  048%=      5-min Rain = 0
KBO1 170327Z 26010KT 09/M02 A2999 RMK A01 T00911015  RH  048%=      5-min Rain = 0
KBO1 170328Z 26010KT 09/M01 A2999 RMK A01 T00921014  RH  047%=      5-min Rain = 0
KBO1 170329Z 26010KT 09/M01 A2999 RMK A01 T00921014  RH  047%=      5-min Rain = 0
KBO1 170330Z 26009KT 09/M01 A2999 RMK A01 T00911014  RH  047%=      5-min Rain = 0
KBO1 170331Z 26010KT 09/M01 A30 RMK A01 T00911014  RH  048%=      5-min Rain = 0
KBO1 170332Z 26010KT 09/M01 A30 RMK A01 T00901014  RH  048%=      5-min Rain = 0
KBO1 170333Z 26010KT 09/M01 A30 RMK A01 T00901014  RH  048%=      5-min Rain = 0
KBO1 170334Z 26010KT 09/M01 A30 RMK A01 T00901014  RH  048%=      5-min Rain = 0
KBO1 170335Z 26010KT 09/M01 A30 RMK A01 T00901014  RH  048%=      5-min Rain = 0
KBO1 170336Z 25010KT 09/M01 A30 RMK A01 T00901013  RH  048%=      5-min Rain = 0
KBO1 170337Z 26010KT 09/M01 A30 RMK A01 T00901013  RH  048%=      5-min Rain = 0
KBO1 170338Z 25011KT 09/M01 A30 RMK A01 T00901013  RH  048%=      5-min Rain = 0
KBO1 170339Z 25010KT 09/M01 A30 RMK A01 T00901013  RH  048%=      5-min Rain = 0
KBO1 170340Z 25010KT 09/M01 A30 RMK A01 T00911012  RH  048%=      5-min Rain = 0
KBO1 170341Z 25009KT 09/M01 A30 RMK A01 T00911012  RH  048%=      5-min Rain = 0
KBO1 170342Z 25009KT 09/M01 A30 RMK A01 T00911012  RH  048%=      5-min Rain = 0
KBO1 170343Z 25010KT 09/M01 A30 RMK A01 T00921012  RH  048%=      5-min Rain = 0
KBO1 170344Z 25010KT 09/M01 A30 RMK A01 T00921011  RH  048%=      5-min Rain = 0
KBO1 170345Z 25010KT 09/M01 A30 RMK A01 T00931011  RH  048%=      5-min Rain = 0
KBO1 170346Z 25010KT 09/M01 A30 RMK A01 T00931011  RH  048%=      5-min Rain = 0
KBO1 170347Z 26009KT 09/M01 A30 RMK A01 T00931011  RH  048%=      5-min Rain = 0
KBO1 170348Z 26010KT 09/M01 A30 RMK A01 T00941011  RH  048%=      5-min Rain = 0
KBO1 170349Z 25010KT 09/M01 A30 RMK A01 T00941011  RH  048%=      5-min Rain = 0
KBO1 170350Z 25010KT 09/M01 A30 RMK A01 T00941011  RH  048%=      5-min Rain = 0
KBO1 170351Z 25010KT 09/M01 A30 RMK A01 T00941010  RH  048%=      5-min Rain = 0
KBO1 170352Z 25010KT 09/M01 A30 RMK A01 T00931011  RH  048%=      5-min Rain = 0
KBO1 170353Z 26010KT 09/M01 A30 RMK A01 T00921011  RH  048%=      5-min Rain = 0
KBO1 170354Z 26010KT 09/M01 A30 RMK A01 T00921011  RH  048%=      5-min Rain = 0
KBO1 170355Z 26010KT 09/M01 A30 RMK A01 T00921011  RH  048%=      5-min Rain = 0
KBO1 170356Z 26010KT 09/M01 A30 RMK A01 T00921011  RH  048%=      5-min Rain = 0
KBO1 170357Z 26010KT 09/M01 A30 RMK A01 T00921012  RH  048%=      5-min Rain = 0
KBO1 170358Z 26010KT 09/M01 A30 RMK A01 T00921012  RH  048%=      5-min Rain = 0
KBO1 170359Z 25010KT 09/M01 A30 RMK A01 T00911012  RH  048%=      5-min Rain = 0
KBO1 170400Z 25010KT 09/M01 A30 RMK A01 T00911012  RH  049%=      5-min Rain = 0
KBO1 170401Z 25010KT 09/M01 A30 RMK A01 T00901012  RH  049%=      5-min Rain = 0
KBO1 170402Z 25010KT 09/M01 A30 RMK A01 T00901012  RH  049%=      5-min Rain = 0
KBO1 170403Z 25010KT 09/M01 A30 RMK A01 T00891012  RH  049%=      5-min Rain = 0
KBO1 170404Z 25010KT 09/M01 A30 RMK A01 T00891012  RH  049%=      5-min Rain = 0
KBO1 170405Z 25010KT 09/M01 A30 RMK A01 T00891011  RH  049%=      5-min Rain = 0
KBO1 170406Z 25011KT 09/M01 A30 RMK A01 T00891011  RH  049%=      5-min Rain = 0
KBO1 170407Z 25011KT 09/M01 A30 RMK A01 T00891011  RH  049%=      5-min Rain = 0
KBO1 170408Z 25011KT 09/M01 A30 RMK A01 T00911011  RH  049%=      5-min Rain = 0
KBO1 170409Z 25011KT 09/M01 A30 RMK A01 T00921011  RH  049%=      5-min Rain = 0
KBO1 170410Z 25010KT 09/M01 A30 RMK A01 T00921011  RH  048%=      5-min Rain = 0
KBO1 170411Z 25011KT 09/M01 A30 RMK A01 T00931011  RH  048%=      5-min Rain = 0
KBO1 170412Z 26010KT 09/M01 A30 RMK A01 T00931010  RH  048%=      5-min Rain = 0
KBO1 170413Z 26010KT 09/M01 A30 RMK A01 T00941010  RH  048%=      5-min Rain = 0
KBO1 170414Z 26009KT 10/M01 A30 RMK A01 T00951010  RH  048%=      5-min Rain = 0
KBO1 170415Z 27008KT 10/M01 A30 RMK A01 T00951010  RH  048%=      5-min Rain = 0
KBO1 170416Z 27009KT 10/M01 A3001 RMK A01 T00951010  RH  048%=      5-min Rain = 0
KBO1 170417Z 27009KT 10/M01 A3001 RMK A01 T00951010  RH  048%=      5-min Rain = 0
KBO1 170418Z 27009KT 10/M01 A3001 RMK A01 T00951010  RH  048%=      5-min Rain = 0
KBO1 170419Z 27009KT 10/M01 A3001 RMK A01 T00951010  RH  048%=      5-min Rain = 0
KBO1 170420Z 28009KT 10/M01 A3001 RMK A01 T00951010  RH  048%=      5-min Rain = 0
KBO1 170421Z 28009KT 10/M01 A3001 RMK A01 T00951010  RH  048%=      5-min Rain = 0
KBO1 170422Z 28007KT 10/M01 A3001 RMK A01 T00951010  RH  048%=      5-min Rain = 0
KBO1 170423Z 27007KT 09/M01 A3001 RMK A01 T00941010  RH  048%=      5-min Rain = 0
KBO1 170424Z 27008KT 09/M01 A3001 RMK A01 T00931010  RH  049%=      5-min Rain = 0
KBO1 170425Z 27008KT 09/M01 A3001 RMK A01 T00931010  RH  049%=      5-min Rain = 0
KBO1 170426Z 27008KT 09/M01 A3001 RMK A01 T00921010  RH  049%=      5-min Rain = 0
KBO1 170427Z 27009KT 09/M01 A3001 RMK A01 T00911010  RH  049%=      5-min Rain = 0
KBO1 170428Z 27009KT 09/M01 A3001 RMK A01 T00901010  RH  050%=      5-min Rain = 0
KBO1 170429Z 28008KT 09/M01 A3001 RMK A01 T00891010  RH  050%=      5-min Rain = 0
KBO1 170430Z 28009KT 09/M01 A3001 RMK A01 T00881010  RH  050%=      5-min Rain = 0
KBO1 170431Z 28009KT 09/M01 A3002 RMK A01 T00881010  RH  050%=      5-min Rain = 0
KBO1 170432Z 28009KT 09/M01 A3002 RMK A01 T00881010  RH  050%=      5-min Rain = 0
KBO1 170433Z 28009KT 09/M01 A3002 RMK A01 T00881009  RH  051%=      5-min Rain = 0
KBO1 170434Z 28008KT 09/M01 A3002 RMK A01 T00871009  RH  051%=      5-min Rain = 0
KBO1 170435Z 29008KT 09/M01 A3002 RMK A01 T00871009  RH  051%=      5-min Rain = 0
KBO1 170436Z 29010KT 09/M01 A3002 RMK A01 T00881009  RH  051%=      5-min Rain = 0
KBO1 170437Z 29011KT 09/M01 A3002 RMK A01 T00881009  RH  051%=      5-min Rain = 0
KBO1 170438Z 29010KT 09/M01 A3002 RMK A01 T00911008  RH  050%=      5-min Rain = 0
KBO1 170439Z 30009KT 09/M01 A3002 RMK A01 T00921008  RH  049%=      5-min Rain = 0
KBO1 170440Z 30009KT 09/M01 A3002 RMK A01 T00931009  RH  049%=      5-min Rain = 0
KBO1 170441Z 30009KT 09/M01 A3002 RMK A01 T00921009  RH  049%=      5-min Rain = 0
KBO1 170442Z 30009KT 09/M01 A3002 RMK A01 T00921008  RH  050%=      5-min Rain = 0
KBO1 170443Z 30009KT 09/M01 A3002 RMK A01 T00911009  RH  050%=      5-min Rain = 0
KBO1 170444Z 30009KT 09/M01 A3002 RMK A01 T00911009  RH  050%=      5-min Rain = 0
KBO1 170445Z 30009KT 09/M01 A3002 RMK A01 T00901009  RH  050%=      5-min Rain = 0
KBO1 170446Z 30008KT 09/M01 A3002 RMK A01 T00901009  RH  050%=      5-min Rain = 0
KBO1 170447Z 30008KT 09/M01 A3002 RMK A01 T00891009  RH  050%=      5-min Rain = 0
KBO1 170448Z 30009KT 09/M01 A3002 RMK A01 T00881009  RH  051%=      5-min Rain = 0
KBO1 170449Z 30010KT 09/M01 A3002 RMK A01 T00871010  RH  051%=      5-min Rain = 0
KBO1 170450Z 31010KT 09/M01 A3002 RMK A01 T00861010  RH  051%=      5-min Rain = 0
KBO1 170451Z 31009KT 09/M01 A3002 RMK A01 T00851010  RH  051%=      5-min Rain = 0
KBO1 170452Z 31010KT 08/M01 A3002 RMK A01 T00841011  RH  051%=      5-min Rain = 0
KBO1 170453Z 31009KT 08/M01 A3002 RMK A01 T00841011  RH  051%=      5-min Rain = 0
KBO1 170454Z 32010KT 08/M01 A3002 RMK A01 T00831011  RH  051%=      5-min Rain = 0
KBO1 170455Z 32010KT 08/M01 A3002 RMK A01 T00831012  RH  051%=      5-min Rain = 0
KBO1 170456Z 32010KT 08/M01 A3002 RMK A01 T00821012  RH  052%=      5-min Rain = 0
KBO1 170457Z 33010KT 08/M01 A3002 RMK A01 T00811012  RH  052%=      5-min Rain = 0
KBO1 170458Z 33011KT 08/M01 A3002 RMK A01 T00811012  RH  052%=      5-min Rain = 0
KBO1 170459Z 33011KT 08/M01 A3002 RMK A01 T00811013  RH  051%=      5-min Rain = 0
KBO1 170500Z 34011KT 08/M01 A3002 RMK A01 T00841013  RH  050%=      5-min Rain = 0
KBO1 170501Z 34011KT 09/M01 A3002 RMK A01 T00891014  RH  049%=      5-min Rain = 0
KBO1 170502Z 35011KT 09/M01 A3002 RMK A01 T00931014  RH  047%=      5-min Rain = 0
KBO1 170503Z 35010KT 09/M02 A3002 RMK A01 T00941015  RH  047%=      5-min Rain = 0
KBO1 170504Z 35011KT 09/M02 A3002 RMK A01 T00941015  RH  046%=      5-min Rain = 0
KBO1 170505Z 35011KT 10/M02 A3002 RMK A01 T00951016  RH  046%=      5-min Rain = 0
KBO1 170506Z 35011KT 10/M02 A3003 RMK A01 T00961016  RH  045%=      5-min Rain = 0
KBO1 170507Z 35011KT 10/M02 A3003 RMK A01 T00961017  RH  045%=      5-min Rain = 0
KBO1 170508Z 35011KT 10/M02 A3003 RMK A01 T00951018  RH  045%=      5-min Rain = 0
KBO1 170509Z 35011KT 10/M02 A3003 RMK A01 T00971019  RH  044%=      5-min Rain = 0
KBO1 170510Z 35012KT 10/M02 A3003 RMK A01 T00981019  RH  044%=      5-min Rain = 0
KBO1 170511Z 35010KT 10/M02 A3003 RMK A01 T00991020  RH  044%=      5-min Rain = 0
KBO1 170512Z 34012KT 10/M02 A3003 RMK A01 T00971020  RH  044%=      5-min Rain = 0
KBO1 170513Z 34013KT 10/M02 A3003 RMK A01 T00951021  RH  044%=      5-min Rain = 0
KBO1 170514Z 34013KT 10/M02 A3003 RMK A01 T00951020  RH  045%=      5-min Rain = 0
KBO1 170515Z 34013KT 10/M02 A3003 RMK A01 T00951020  RH  045%=      5-min Rain = 0
KBO1 170516Z 34012KT 10/M02 A3003 RMK A01 T00971019  RH  044%=      5-min Rain = 0
KBO1 170517Z 34013KT 10/M02 A3003 RMK A01 T00971020  RH  044%=      5-min Rain = 0
KBO1 170518Z 35013KT 10/M02 A3003 RMK A01 T00991020  RH  043%=      5-min Rain = 0
KBO1 170519Z 35013KT 10/M02 A3003 RMK A01 T01011020  RH  043%=      5-min Rain = 0
KBO1 170520Z 35013KT 10/M02 A3003 RMK A01 T01021020  RH  042%=      5-min Rain = 0
KBO1 170521Z 35013KT 10/M02 A3003 RMK A01 T01031020  RH  042%=      5-min Rain = 0
KBO1 170522Z 36012KT 10/M02 A3003 RMK A01 T01041021  RH  042%=      5-min Rain = 0
KBO1 170523Z 36012KT 11/M02 A3003 RMK A01 T01051021  RH  041%=      5-min Rain = 0
KBO1 170524Z 01012KT 10/M02 A3003 RMK A01 T01041021  RH  041%=      5-min Rain = 0
KBO1 170525Z 01013KT 10/M02 A3003 RMK A01 T01041021  RH  042%=      5-min Rain = 0
KBO1 170526Z 01013KT 10/M02 A3003 RMK A01 T01041022  RH  042%=      5-min Rain = 0
KBO1 170527Z 02013KT 10/M02 A3003 RMK A01 T01041022  RH  041%=      5-min Rain = 0
KBO1 170528Z 02013KT 10/M02 A3003 RMK A01 T01041022  RH  041%=      5-min Rain = 0
KBO1 170529Z 02013KT 10/M02 A3003 RMK A01 T01041022  RH  041%=      5-min Rain = 0
KBO1 170530Z 02014KT 10/M02 A3003 RMK A01 T01031022  RH  042%=      5-min Rain = 0
KBO1 170531Z 02014KT 10/M02 A3003 RMK A01 T01031022  RH  042%=      5-min Rain = 0
KBO1 170532Z 02014KT 10/M02 A3003 RMK A01 T01021022  RH  042%=      5-min Rain = 0
KBO1 170533Z 02015KT 10/M02 A3003 RMK A01 T01021022  RH  042%=      5-min Rain = 0
KBO1 170534Z 02014KT 10/M02 A3003 RMK A01 T01011022  RH  042%=      5-min Rain = 0
KBO1 170535Z 02013KT 10/M02 A3003 RMK A01 T01011022  RH  042%=      5-min Rain = 0
KBO1 170536Z 01013KT 10/M02 A3003 RMK A01 T00991022  RH  043%=      5-min Rain = 0
KBO1 170537Z 01013KT 10/M02 A3003 RMK A01 T00981022  RH  043%=      5-min Rain = 0
KBO1 170538Z 02013KT 10/M02 A3003 RMK A01 T00971021  RH  043%=      5-min Rain = 0
KBO1 170539Z 02013KT 10/M02 A3003 RMK A01 T00971021  RH  043%=      5-min Rain = 0
KBO1 170540Z 02012G18KT 10/M02 A3003 RMK A01 T00981021  RH  044%=      5-min Rain = 0
KBO1 170541Z 02015KT 10/M02 A3004 RMK A01 T00971020  RH  044%=      5-min Rain = 0
KBO1 170542Z 01014KT 10/M02 A3004 RMK A01 T00981020  RH  044%=      5-min Rain = 0
KBO1 170543Z 01014KT 10/M02 A3004 RMK A01 T00991019  RH  043%=      5-min Rain = 0
KBO1 170544Z 01015KT 10/M02 A3004 RMK A01 T00991019  RH  044%=      5-min Rain = 0
KBO1 170545Z 02016KT 10/M02 A3004 RMK A01 T00991019  RH  044%=      5-min Rain = 0
KBO1 170546Z 01015KT 10/M02 A3004 RMK A01 T01001019  RH  043%=      5-min Rain = 0
KBO1 170547Z 02015KT 10/M02 A3004 RMK A01 T01001019  RH  043%=      5-min Rain = 0
KBO1 170548Z 02016KT 10/M02 A3004 RMK A01 T01001019  RH  043%=      5-min Rain = 0
KBO1 170549Z 02018G23KT 10/M02 A3004 RMK A01 T01001020  RH  043%=      5-min Rain = 0
KBO1 170550Z 02015KT 10/M02 A3004 RMK A01 T01011020  RH  043%=      5-min Rain = 0
KBO1 170551Z 02016KT 10/M02 A3004 RMK A01 T01011021  RH  042%=      5-min Rain = 0
KBO1 170552Z 02015KT 10/M02 A3004 RMK A01 T01011021  RH  042%=      5-min Rain = 0
KBO1 170553Z 02017KT 10/M02 A3004 RMK A01 T01001022  RH  042%=      5-min Rain = 0
KBO1 170554Z 02016KT 10/M02 A3004 RMK A01 T01001023  RH  042%=      5-min Rain = 0
KBO1 170555Z 02018KT 10/M02 A3004 RMK A01 T01011023  RH  042%=      5-min Rain = 0
KBO1 170556Z 02017KT 10/M02 A3004 RMK A01 T01021024  RH  041%=      5-min Rain = 0
KBO1 170557Z 02017KT 10/M03 A3005 RMK A01 T01031025  RH  041%=      5-min Rain = 0
KBO1 170558Z 02016KT 10/M03 A3005 RMK A01 T01031025  RH  041%=      5-min Rain = 0
KBO1 170559Z 02017KT 10/M03 A3005 RMK A01 T01031026  RH  041%=      5-min Rain = 0

Page generated in 0.1379 seconds.